GFSWCAN_prec_precacc24_309.txt.gz
Total_Precipitation_Accumulation
0.34 0.34 0.32 0.26 0.16 0.20 0.28 0.36 0.37 0.30 0.22 0.15 0.21 0.36 0.36 0.14 0.36 0.24 0.02 0.00 0.00 0.00 0.00 0.00 0.00 0.00 0.00 0.00 0.00 0.00 0.00 0.00 0.00 0.00 0.00 0.00 0.00 0.00 0.00 0.00 0.00 0.00 0.00 0.00 0.00 0.00 0.00 0.00 0.00 0.00 0.00 0.00 0.00 0.00
0.29 0.31 0.31 0.24 0.20 0.21 0.22 0.32 0.31 0.24 0.22 0.14 0.18 0.30 0.38 0.19 0.29 0.20 0.01 0.00 0.00 0.00 0.00 0.00 0.00 0.00 0.00 0.00 0.00 0.00 0.00 0.00 0.00 0.00 0.00 0.00 0.00 0.00 0.00 0.00 0.00 0.00 0.00 0.00 0.00 0.00 0.00 0.00 0.00 0.00 0.00 0.00 0.00 0.00
0.23 0.25 0.28 0.30 0.25 0.21 0.20 0.26 0.30 0.18 0.20 0.13 0.16 0.26 0.35 0.22 0.22 0.17 0.01 0.00 0.00 0.00 0.00 0.00 0.00 0.00 0.00 0.00 0.00 0.00 0.00 0.00 0.00 0.00 0.00 0.00 0.01 0.00 0.00 0.00 0.00 0.00 0.00 0.00 0.00 0.00 0.00 0.00 0.00 0.00 0.00 0.00 0.00 0.00
0.25 0.25 0.28 0.27 0.23 0.22 0.18 0.22 0.29 0.22 0.21 0.15 0.17 0.24 0.31 0.20 0.13 0.12 0.01 0.00 0.00 0.00 0.00 0.00 0.00 0.00 0.00 0.00 0.00 0.00 0.00 0.00 0.00 0.00 0.00 0.01 0.00 0.00 0.00 0.00 0.00 0.00 0.00 0.00 0.00 0.00 0.00 0.00 0.00 0.00 0.00 0.00 0.00 0.00
0.23 0.24 0.22 0.21 0.21 0.23 0.20 0.25 0.30 0.24 0.23 0.16 0.21 0.25 0.30 0.14 0.06 0.06 0.00 0.00 0.00 0.00 0.00 0.00 0.00 0.00 0.00 0.00 0.00 0.00 0.00 0.00 0.00 0.00 0.01 0.01 0.00 0.00 0.00 0.00 0.00 0.00 0.00 0.00 0.00 0.00 0.00 0.00 0.00 0.00 0.00 0.00 0.00 0.00
0.21 0.22 0.17 0.16 0.21 0.24 0.27 0.29 0.33 0.25 0.24 0.17 0.25 0.32 0.30 0.12 0.03 0.03 0.03 0.00 0.00 0.00 0.00 0.00 0.00 0.00 0.00 0.00 0.00 0.00 0.00 0.00 0.00 0.00 0.00 0.00 0.00 0.00 0.00 0.00 0.00 0.00 0.00 0.00 0.00 0.00 0.00 0.00 0.00 0.00 0.00 0.00 0.00 0.00
0.23 0.19 0.13 0.15 0.22 0.28 0.31 0.34 0.34 0.26 0.22 0.19 0.23 0.28 0.22 0.08 0.04 0.03 0.02 0.00 0.00 0.00 0.01 0.01 0.00 0.00 0.00 0.00 0.00 0.00 0.00 0.00 0.00 0.00 0.00 0.00 0.00 0.00 0.00 0.00 0.00 0.00 0.00 0.00 0.00 0.00 0.00 0.00 0.00 0.00 0.00 0.00 0.00 0.00
0.24 0.16 0.14 0.17 0.23 0.28 0.31 0.37 0.32 0.25 0.19 0.15 0.18 0.24 0.24 0.15 0.09 0.03 0.00 0.00 0.00 0.00 0.00 0.00 0.00 0.00 0.00 0.00 0.00 0.00 0.00 0.00 0.00 0.00 0.00 0.00 0.00 0.00 0.00 0.00 0.00 0.00 0.00 0.00 0.00 0.00 0.00 0.00 0.00 0.00 0.00 0.00 0.00 0.00
0.22 0.19 0.18 0.18 0.22 0.25 0.28 0.36 0.34 0.26 0.21 0.16 0.17 0.22 0.19 0.10 0.05 0.01 0.00 0.00 0.00 0.00 0.00 0.00 0.00 0.00 0.00 0.00 0.00 0.00 0.00 0.00 0.00 0.00 0.00 0.00 0.00 0.00 0.00 0.00 0.00 0.00 0.00 0.00 0.00 0.00 0.00 0.00 0.00 0.00 0.00 0.00 0.00 0.01
0.22 0.21 0.17 0.16 0.20 0.23 0.28 0.36 0.36 0.31 0.30 0.27 0.28 0.35 0.35 0.12 0.01 0.01 0.01 0.01 0.01 0.00 0.00 0.00 0.00 0.00 0.00 0.00 0.00 0.00 0.00 0.00 0.00 0.00 0.00 0.00 0.00 0.00 0.00 0.00 0.00 0.00 0.00 0.00 0.00 0.00 0.00 0.00 0.00 0.00 0.00 0.00 0.00 0.01
0.20 0.18 0.14 0.14 0.18 0.23 0.28 0.30 0.31 0.37 0.41 0.36 0.33 0.28 0.19 0.07 0.04 0.04 0.05 0.04 0.02 0.00 0.00 0.00 0.00 0.01 0.00 0.00 0.00 0.00 0.00 0.00 0.00 0.00 0.00 0.00 0.00 0.00 0.00 0.00 0.00 0.00 0.00 0.00 0.00 0.00 0.00 0.00 0.00 0.00 0.00 0.00 0.00 0.00
0.11 0.09 0.09 0.12 0.15 0.16 0.17 0.17 0.16 0.16 0.15 0.09 0.08 0.09 0.07 0.06 0.05 0.03 0.02 0.00 0.00 0.00 0.00 0.00 0.00 0.00 0.00 0.00 0.00 0.00 0.00 0.00 0.00 0.01 0.03 0.00 0.00 0.00 0.00 0.00 0.00 0.00 0.00 0.00 0.00 0.00 0.00 0.00 0.00 0.00 0.00 0.00 0.00 0.00
0.07 0.05 0.04 0.05 0.05 0.04 0.03 0.04 0.06 0.06 0.04 0.03 0.03 0.04 0.04 0.02 0.02 0.00 0.00 0.00 0.00 0.00 0.00 0.00 0.02 0.03 0.02 0.00 0.00 0.00 0.00 0.00 0.00 0.02 0.01 0.00 0.00 0.00 0.00 0.00 0.00 0.00 0.00 0.00 0.00 0.00 0.00 0.00 0.00 0.00 0.00 0.00 0.00 0.00
0.05 0.03 0.03 0.01 0.00 0.00 0.00 0.01 0.04 0.03 0.01 0.02 0.02 0.01 0.01 0.00 0.00 0.00 0.00 0.00 0.00 0.00 0.00 0.00 0.00 0.04 0.03 0.00 0.00 0.00 0.00 0.00 0.01 0.01 0.01 0.00 0.00 0.00 0.00 0.00 0.00 0.00 0.00 0.00 0.00 0.00 0.00 0.00 0.00 0.00 0.00 0.00 0.00 0.00
0.07 0.04 0.03 0.00 0.00 0.00 0.00 0.00 0.00 0.00 0.00 0.00 0.00 0.00 0.01 0.00 0.00 0.00 0.00 0.00 0.00 0.00 0.00 0.00 0.00 0.01 0.01 0.00 0.00 0.00 0.01 0.01 0.00 0.02 0.03 0.01 0.00 0.00 0.00 0.00 0.00 0.00 0.00 0.00 0.00 0.00 0.00 0.00 0.00 0.00 0.00 0.00 0.00 0.00
0.07 0.10 0.05 0.00 0.00 0.00 0.00 0.00 0.00 0.00 0.00 0.00 0.00 0.02 0.02 0.01 0.01 0.00 0.00 0.00 0.02 0.01 0.00 0.00 0.00 0.00 0.00 0.00 0.00 0.00 0.00 0.00 0.01 0.01 0.00 0.00 0.00 0.00 0.00 0.00 0.00 0.00 0.00 0.00 0.00 0.00 0.00 0.00 0.00 0.00 0.00 0.00 0.00 0.00
0.07 0.04 0.03 0.00 0.00 0.01 0.01 0.00 0.00 0.00 0.01 0.02 0.01 0.01 0.01 0.01 0.02 0.01 0.00 0.01 0.04 0.06 0.12 0.10 0.04 0.00 0.00 0.01 0.01 0.00 0.00 0.00 0.00 0.00 0.00 0.00 0.00 0.00 0.00 0.00 0.00 0.00 0.00 0.00 0.00 0.00 0.00 0.00 0.00 0.00 0.00 0.00 0.00 0.00
0.00 0.01 0.03 0.01 0.01 0.02 0.04 0.02 0.03 0.04 0.03 0.01 0.01 0.01 0.00 0.00 0.00 0.00 0.00 0.01 0.07 0.08 0.10 0.15 0.16 0.09 0.01 0.00 0.01 0.01 0.00 0.00 0.00 0.00 0.00 0.00 0.00 0.00 0.00 0.00 0.00 0.00 0.00 0.00 0.00 0.00 0.00 0.00 0.00 0.00 0.00 0.00 0.00 0.00
0.00 0.03 0.05 0.02 0.01 0.00 0.02 0.05 0.04 0.04 0.02 0.00 0.00 0.00 0.00 0.00 0.00 0.00 0.00 0.00 0.00 0.03 0.10 0.19 0.21 0.13 0.04 0.04 0.04 0.06 0.05 0.03 0.01 0.01 0.00 0.00 0.00 0.00 0.00 0.00 0.00 0.00 0.00 0.00 0.00 0.00 0.00 0.00 0.00 0.00 0.00 0.00 0.00 0.00
0.07 0.08 0.03 0.00 0.00 0.00 0.00 0.02 0.02 0.01 0.00 0.00 0.00 0.00 0.00 0.00 0.00 0.00 0.00 0.00 0.00 0.01 0.02 0.10 0.15 0.07 0.11 0.10 0.07 0.12 0.16 0.11 0.06 0.04 0.02 0.01 0.00 0.00 0.00 0.00 0.00 0.00 0.00 0.00 0.00 0.00 0.00 0.00 0.00 0.00 0.00 0.00 0.00 0.00
0.04 0.04 0.01 0.00 0.00 0.00 0.00 0.00 0.03 0.01 0.00 0.00 0.00 0.00 0.00 0.00 0.00 0.00 0.00 0.00 0.00 0.00 0.00 0.00 0.01 0.01 0.02 0.05 0.06 0.08 0.10 0.11 0.08 0.04 0.03 0.03 0.02 0.02 0.01 0.00 0.00 0.00 0.00 0.00 0.00 0.00 0.00 0.00 0.00 0.00 0.00 0.00 0.00 0.00
0.01 0.03 0.03 0.02 0.00 0.01 0.01 0.00 0.00 0.01 0.02 0.01 0.00 0.00 0.00 0.00 0.00 0.00 0.00 0.01 0.00 0.00 0.00 0.00 0.00 0.00 0.00 0.00 0.01 0.03 0.02 0.07 0.10 0.08 0.08 0.06 0.04 0.05 0.05 0.02 0.01 0.00 0.00 0.00 0.00 0.00 0.00 0.00 0.00 0.00 0.00 0.00 0.00 0.00
0.00 0.00 0.01 0.11 0.11 0.05 0.01 0.00 0.00 0.00 0.00 0.00 0.00 0.01 0.02 0.02 0.01 0.00 0.03 0.00 0.00 0.00 0.00 0.00 0.00 0.00 0.00 0.00 0.00 0.00 0.01 0.01 0.01 0.02 0.03 0.03 0.06 0.06 0.02 0.01 0.02 0.02 0.01 0.00 0.00 0.00 0.00 0.00 0.00 0.00 0.00 0.00 0.00 0.01
0.00 0.00 0.00 0.00 0.01 0.01 0.01 0.01 0.00 0.00 0.00 0.00 0.00 0.00 0.00 0.00 0.02 0.06 0.04 0.00 0.00 0.00 0.00 0.00 0.00 0.00 0.00 0.00 0.00 0.01 0.01 0.01 0.01 0.01 0.01 0.03 0.02 0.04 0.06 0.07 0.05 0.03 0.02 0.01 0.00 0.00 0.00 0.00 0.00 0.00 0.00 0.00 0.00 0.01
0.00 0.00 0.00 0.00 0.01 0.02 0.01 0.00 0.00 0.00 0.00 0.00 0.00 0.00 0.00 0.00 0.01 0.06 0.06 0.02 0.02 0.02 0.00 0.00 0.00 0.00 0.00 0.01 0.01 0.01 0.01 0.00 0.01 0.00 0.00 0.01 0.02 0.03 0.03 0.03 0.05 0.07 0.09 0.06 0.01 0.01 0.01 0.01 0.01 0.01 0.01 0.01 0.00 0.00
0.01 0.00 0.00 0.00 0.00 0.00 0.01 0.00 0.00 0.00 0.01 0.00 0.00 0.00 0.00 0.00 0.00 0.00 0.01 0.01 0.02 0.04 0.06 0.08 0.06 0.05 0.05 0.05 0.08 0.07 0.03 0.02 0.01 0.01 0.01 0.03 0.04 0.06 0.06 0.05 0.05 0.06 0.09 0.11 0.10 0.11 0.08 0.03 0.02 0.02 0.01 0.02 0.03 0.02
0.00 0.00 0.00 0.00 0.00 0.00 0.00 0.00 0.00 0.00 0.01 0.01 0.04 0.03 0.03 0.01 0.00 0.02 0.04 0.03 0.04 0.07 0.11 0.16 0.13 0.12 0.10 0.11 0.17 0.12 0.03 0.01 0.01 0.01 0.01 0.01 0.02 0.03 0.05 0.05 0.05 0.06 0.12 0.11 0.13 0.13 0.07 0.08 0.08 0.05 0.04 0.04 0.02 0.02
0.00 0.00 0.00 0.00 0.00 0.00 0.00 0.00 0.00 0.00 0.00 0.00 0.01 0.01 0.05 0.09 0.08 0.02 0.02 0.02 0.02 0.01 0.01 0.01 0.01 0.02 0.02 0.00 0.01 0.01 0.00 0.00 0.00 0.00 0.00 0.01 0.00 0.00 0.00 0.00 0.00 0.01 0.03 0.03 0.02 0.01 0.02 0.04 0.07 0.10 0.11 0.08 0.04 0.03
0.00 0.00 0.00 0.00 0.00 0.00 0.00 0.00 0.00 0.00 0.00 0.00 0.01 0.02 0.02 0.01 0.02 0.00 0.00 0.00 0.00 0.00 0.00 0.00 0.00 0.00 0.00 0.00 0.00 0.00 0.00 0.00 0.00 0.00 0.00 0.00 0.01 0.00 0.00 0.00 0.00 0.00 0.01 0.02 0.05 0.04 0.03 0.05 0.07 0.10 0.12 0.14 0.13 0.12
0.00 0.00 0.00 0.00 0.00 0.00 0.00 0.00 0.00 0.00 0.00 0.00 0.00 0.00 0.00 0.00 0.00 0.00 0.00 0.00 0.00 0.00 0.00 0.00 0.00 0.00 0.00 0.00 0.00 0.00 0.00 0.00 0.00 0.00 0.00 0.00 0.00 0.00 0.00 0.00 0.00 0.00 0.00 0.01 0.03 0.07 0.11 0.10 0.10 0.11 0.13 0.15 0.16 0.15
0.00 0.00 0.00 0.00 0.00 0.01 0.00 0.00 0.00 0.00 0.00 0.00 0.00 0.00 0.00 0.00 0.00 0.00 0.00 0.00 0.00 0.00 0.00 0.00 0.00 0.00 0.00 0.00 0.00 0.00 0.00 0.00 0.00 0.00 0.01 0.00 0.00 0.01 0.01 0.00 0.01 0.00 0.00 0.00 0.00 0.00 0.01 0.03 0.05 0.08 0.10 0.13 0.15 0.18
0.01 0.00 0.00 0.00 0.01 0.00 0.00 0.00 0.01 0.04 0.05 0.05 0.03 0.01 0.00 0.00 0.00 0.00 0.00 0.00 0.00 0.00 0.00 0.00 0.00 0.01 0.00 0.00 0.00 0.00 0.01 0.01 0.00 0.01 0.01 0.01 0.01 0.02 0.02 0.01 0.01 0.01 0.00 0.00 0.00 0.01 0.01 0.01 0.01 0.01 0.01 0.01 0.02 0.05
0.01 0.01 0.01 0.00 0.00 0.00 0.00 0.00 0.00 0.00 0.00 0.00 0.00 0.00 0.00 0.00 0.00 0.00 0.00 0.00 0.00 0.00 0.00 0.00 0.00 0.00 0.00 0.00 0.00 0.01 0.03 0.03 0.02 0.05 0.07 0.05 0.05 0.05 0.03 0.02 0.01 0.01 0.01 0.01 0.01 0.01 0.01 0.01 0.01 0.00 0.01 0.00 0.00 0.00

GFSWCAN_prec_precacc24_315.txt.gz
Total_Precipitation_Accumulation
0.34 0.34 0.33 0.26 0.17 0.19 0.28 0.36 0.37 0.30 0.22 0.15 0.21 0.36 0.36 0.14 0.37 0.38 0.26 0.26 0.22 0.20 0.03 0.00 0.00 0.00 0.00 0.00 0.00 0.00 0.00 0.00 0.00 0.00 0.00 0.00 0.00 0.00 0.00 0.00 0.00 0.00 0.00 0.00 0.00 0.00 0.00 0.00 0.00 0.00 0.00 0.00 0.00 0.00
0.30 0.31 0.31 0.24 0.21 0.22 0.23 0.32 0.31 0.24 0.22 0.14 0.18 0.30 0.38 0.19 0.30 0.33 0.26 0.29 0.25 0.23 0.05 0.00 0.00 0.00 0.00 0.00 0.00 0.00 0.00 0.00 0.00 0.00 0.00 0.00 0.00 0.00 0.00 0.00 0.00 0.00 0.00 0.00 0.00 0.00 0.00 0.00 0.00 0.00 0.00 0.00 0.00 0.00
0.24 0.27 0.29 0.30 0.26 0.22 0.21 0.27 0.30 0.18 0.20 0.13 0.16 0.26 0.35 0.22 0.23 0.27 0.21 0.28 0.27 0.21 0.08 0.00 0.00 0.00 0.00 0.00 0.00 0.00 0.00 0.00 0.00 0.00 0.00 0.00 0.01 0.00 0.00 0.00 0.00 0.00 0.00 0.00 0.00 0.00 0.00 0.00 0.00 0.00 0.00 0.00 0.00 0.00
0.26 0.26 0.29 0.28 0.23 0.23 0.19 0.23 0.29 0.22 0.22 0.15 0.17 0.25 0.31 0.21 0.15 0.18 0.20 0.22 0.28 0.16 0.08 0.04 0.00 0.00 0.00 0.00 0.01 0.01 0.00 0.00 0.00 0.00 0.00 0.01 0.00 0.00 0.00 0.00 0.00 0.00 0.00 0.00 0.00 0.00 0.00 0.00 0.00 0.00 0.00 0.00 0.00 0.00
0.25 0.25 0.24 0.22 0.22 0.24 0.21 0.26 0.31 0.24 0.24 0.17 0.22 0.25 0.31 0.16 0.09 0.15 0.16 0.22 0.15 0.17 0.11 0.02 0.02 0.00 0.00 0.00 0.01 0.01 0.00 0.00 0.00 0.00 0.01 0.01 0.00 0.00 0.00 0.00 0.00 0.00 0.00 0.00 0.00 0.00 0.00 0.00 0.00 0.00 0.00 0.00 0.00 0.00
0.24 0.24 0.18 0.16 0.22 0.25 0.28 0.30 0.34 0.25 0.24 0.17 0.25 0.33 0.33 0.15 0.12 0.22 0.35 0.29 0.13 0.15 0.11 0.09 0.02 0.00 0.00 0.00 0.00 0.00 0.00 0.00 0.00 0.00 0.00 0.00 0.00 0.00 0.00 0.00 0.00 0.00 0.00 0.00 0.00 0.00 0.00 0.00 0.00 0.00 0.00 0.00 0.00 0.00
0.27 0.21 0.16 0.16 0.24 0.30 0.32 0.35 0.35 0.26 0.22 0.20 0.25 0.35 0.29 0.14 0.18 0.31 0.27 0.17 0.13 0.14 0.13 0.11 0.08 0.00 0.00 0.00 0.00 0.00 0.00 0.00 0.00 0.00 0.00 0.00 0.00 0.00 0.00 0.00 0.00 0.00 0.00 0.00 0.00 0.00 0.00 0.00 0.00 0.00 0.00 0.00 0.00 0.00
0.26 0.18 0.16 0.19 0.25 0.30 0.32 0.39 0.34 0.25 0.22 0.21 0.28 0.39 0.42 0.36 0.31 0.18 0.03 0.03 0.12 0.17 0.09 0.09 0.13 0.02 0.00 0.00 0.00 0.00 0.00 0.00 0.00 0.00 0.00 0.00 0.00 0.00 0.00 0.00 0.00 0.00 0.00 0.00 0.00 0.00 0.00 0.00 0.00 0.00 0.00 0.00 0.00 0.00
0.23 0.21 0.20 0.19 0.22 0.27 0.31 0.39 0.37 0.30 0.31 0.32 0.43 0.61 0.77 0.66 0.39 0.26 0.13 0.07 0.16 0.22 0.06 0.01 0.03 0.01 0.00 0.00 0.00 0.00 0.00 0.00 0.00 0.00 0.00 0.00 0.00 0.01 0.00 0.00 0.00 0.00 0.00 0.00 0.00 0.00 0.00 0.00 0.00 0.00 0.00 0.00 0.00 0.00
0.23 0.25 0.22 0.20 0.25 0.31 0.36 0.47 0.47 0.46 0.55 0.61 0.90 1.23 1.17 0.60 0.19 0.27 0.32 0.34 0.40 0.27 0.04 0.00 0.00 0.00 0.00 0.00 0.00 0.00 0.00 0.00 0.00 0.00 0.00 0.00 0.00 0.00 0.00 0.00 0.00 0.00 0.00 0.00 0.00 0.00 0.00 0.00 0.00 0.00 0.00 0.00 0.00 0.00
0.30 0.28 0.21 0.24 0.35 0.43 0.48 0.51 0.57 0.71 0.85 0.88 0.98 0.80 0.51 0.26 0.35 0.67 0.73 0.54 0.38 0.15 0.01 0.00 0.00 0.00 0.00 0.00 0.00 0.00 0.00 0.01 0.01 0.00 0.00 0.00 0.00 0.00 0.00 0.00 0.00 0.00 0.00 0.00 0.00 0.00 0.00 0.00 0.00 0.00 0.00 0.00 0.00 0.00
0.33 0.25 0.24 0.30 0.38 0.39 0.39 0.45 0.50 0.48 0.43 0.30 0.27 0.29 0.30 0.36 0.61 0.62 0.44 0.24 0.12 0.03 0.00 0.00 0.00 0.00 0.00 0.00 0.00 0.00 0.00 0.00 0.00 0.00 0.01 0.00 0.00 0.00 0.00 0.00 0.00 0.00 0.00 0.00 0.00 0.00 0.00 0.00 0.00 0.00 0.00 0.00 0.00 0.00
0.27 0.24 0.18 0.24 0.25 0.23 0.31 0.38 0.35 0.21 0.15 0.13 0.15 0.25 0.40 0.38 0.42 0.24 0.15 0.05 0.02 0.00 0.00 0.00 0.01 0.01 0.00 0.00 0.00 0.00 0.00 0.00 0.00 0.01 0.00 0.00 0.00 0.00 0.00 0.00 0.00 0.00 0.00 0.00 0.00 0.00 0.00 0.00 0.00 0.00 0.00 0.00 0.00 0.00
0.20 0.17 0.16 0.17 0.20 0.28 0.32 0.35 0.35 0.23 0.20 0.32 0.30 0.23 0.24 0.09 0.06 0.01 0.00 0.00 0.00 0.00 0.00 0.00 0.00 0.02 0.02 0.00 0.00 0.00 0.00 0.00 0.01 0.01 0.01 0.01 0.00 0.00 0.00 0.00 0.00 0.00 0.00 0.00 0.00 0.00 0.00 0.00 0.00 0.00 0.00 0.00 0.00 0.00
0.12 0.14 0.21 0.30 0.31 0.31 0.34 0.26 0.19 0.15 0.15 0.15 0.10 0.07 0.08 0.03 0.01 0.00 0.00 0.00 0.00 0.00 0.00 0.00 0.01 0.01 0.01 0.01 0.00 0.00 0.00 0.01 0.00 0.02 0.04 0.01 0.00 0.00 0.00 0.00 0.00 0.00 0.00 0.00 0.00 0.00 0.00 0.00 0.00 0.00 0.00 0.00 0.00 0.00
0.17 0.19 0.20 0.21 0.19 0.16 0.15 0.12 0.10 0.08 0.07 0.09 0.19 0.12 0.04 0.01 0.01 0.01 0.00 0.00 0.00 0.00 0.00 0.00 0.01 0.02 0.02 0.01 0.00 0.00 0.00 0.00 0.01 0.01 0.00 0.00 0.00 0.00 0.00 0.00 0.00 0.00 0.00 0.00 0.00 0.00 0.00 0.00 0.00 0.00 0.00 0.00 0.00 0.00
0.06 0.10 0.10 0.07 0.05 0.05 0.05 0.06 0.08 0.16 0.17 0.19 0.15 0.02 0.01 0.01 0.02 0.01 0.00 0.00 0.00 0.01 0.02 0.02 0.03 0.01 0.00 0.00 0.00 0.00 0.00 0.00 0.00 0.00 0.00 0.00 0.00 0.00 0.00 0.00 0.00 0.00 0.00 0.00 0.00 0.00 0.00 0.00 0.00 0.00 0.00 0.00 0.00 0.00
0.01 0.03 0.03 0.01 0.01 0.01 0.01 0.02 0.06 0.13 0.23 0.18 0.10 0.03 0.01 0.00 0.00 0.00 0.00 0.00 0.01 0.02 0.02 0.02 0.05 0.05 0.00 0.00 0.01 0.01 0.01 0.00 0.00 0.00 0.00 0.00 0.00 0.00 0.00 0.00 0.00 0.00 0.00 0.00 0.00 0.00 0.00 0.00 0.00 0.00 0.00 0.00 0.00 0.00
0.01 0.02 0.03 0.00 0.00 0.00 0.01 0.01 0.01 0.18 0.25 0.10 0.05 0.01 0.01 0.02 0.01 0.00 0.00 0.00 0.00 0.00 0.01 0.01 0.02 0.02 0.03 0.03 0.03 0.05 0.04 0.02 0.01 0.00 0.00 0.00 0.00 0.00 0.00 0.00 0.00 0.00 0.00 0.00 0.00 0.00 0.00 0.00 0.00 0.00 0.00 0.00 0.00 0.00
0.07 0.07 0.01 0.00 0.00 0.00 0.01 0.02 0.01 0.10 0.12 0.11 0.05 0.02 0.02 0.01 0.01 0.00 0.00 0.00 0.00 0.00 0.00 0.00 0.01 0.02 0.05 0.04 0.04 0.10 0.12 0.07 0.03 0.02 0.01 0.01 0.00 0.00 0.00 0.00 0.00 0.00 0.00 0.00 0.00 0.00 0.00 0.00 0.00 0.00 0.00 0.00 0.00 0.00
0.04 0.04 0.00 0.00 0.00 0.00 0.00 0.00 0.02 0.03 0.06 0.03 0.01 0.00 0.00 0.00 0.00 0.00 0.00 0.00 0.00 0.00 0.00 0.00 0.00 0.00 0.00 0.01 0.03 0.06 0.08 0.08 0.04 0.01 0.02 0.03 0.02 0.02 0.01 0.00 0.00 0.00 0.00 0.00 0.00 0.00 0.00 0.00 0.00 0.00 0.00 0.00 0.00 0.00
0.00 0.00 0.00 0.00 0.00 0.00 0.00 0.00 0.00 0.00 0.00 0.00 0.00 0.00 0.00 0.00 0.00 0.00 0.00 0.00 0.00 0.00 0.00 0.00 0.00 0.00 0.00 0.00 0.00 0.00 0.01 0.02 0.01 0.01 0.02 0.05 0.04 0.05 0.05 0.02 0.01 0.00 0.00 0.00 0.00 0.00 0.00 0.00 0.00 0.00 0.00 0.00 0.00 0.00
0.00 0.00 0.00 0.00 0.00 0.00 0.00 0.00 0.00 0.00 0.00 0.00 0.00 0.00 0.00 0.00 0.00 0.00 0.00 0.00 0.00 0.00 0.00 0.00 0.00 0.00 0.00 0.00 0.00 0.00 0.00 0.00 0.00 0.00 0.01 0.02 0.06 0.06 0.02 0.01 0.02 0.02 0.01 0.00 0.00 0.00 0.00 0.00 0.00 0.00 0.00 0.00 0.00 0.01
0.00 0.00 0.00 0.00 0.00 0.00 0.00 0.01 0.00 0.00 0.00 0.00 0.00 0.00 0.00 0.00 0.00 0.00 0.00 0.00 0.00 0.00 0.00 0.00 0.00 0.00 0.00 0.00 0.00 0.01 0.01 0.01 0.01 0.00 0.00 0.01 0.01 0.04 0.06 0.07 0.05 0.03 0.02 0.01 0.00 0.00 0.00 0.00 0.00 0.00 0.00 0.00 0.00 0.01
0.00 0.00 0.00 0.00 0.00 0.00 0.01 0.00 0.00 0.00 0.00 0.00 0.00 0.00 0.00 0.00 0.00 0.00 0.00 0.00 0.00 0.00 0.00 0.00 0.00 0.00 0.00 0.01 0.01 0.01 0.01 0.00 0.01 0.00 0.00 0.01 0.02 0.02 0.03 0.03 0.05 0.07 0.09 0.06 0.01 0.01 0.02 0.02 0.01 0.01 0.01 0.01 0.01 0.01
0.00 0.00 0.00 0.00 0.00 0.00 0.00 0.00 0.00 0.00 0.00 0.00 0.00 0.00 0.00 0.00 0.00 0.00 0.00 0.00 0.00 0.00 0.00 0.00 0.02 0.04 0.05 0.05 0.08 0.07 0.03 0.02 0.01 0.01 0.01 0.03 0.04 0.06 0.06 0.05 0.05 0.07 0.09 0.12 0.11 0.13 0.14 0.12 0.11 0.08 0.03 0.02 0.04 0.04
0.00 0.00 0.00 0.00 0.00 0.00 0.00 0.00 0.00 0.00 0.00 0.00 0.00 0.00 0.00 0.00 0.00 0.00 0.01 0.00 0.00 0.00 0.00 0.01 0.05 0.07 0.09 0.11 0.17 0.12 0.03 0.01 0.01 0.01 0.01 0.01 0.02 0.03 0.05 0.05 0.05 0.06 0.12 0.11 0.13 0.14 0.11 0.10 0.09 0.07 0.05 0.04 0.03 0.04
0.00 0.00 0.00 0.00 0.00 0.00 0.00 0.00 0.00 0.00 0.00 0.00 0.00 0.00 0.00 0.00 0.00 0.00 0.00 0.00 0.00 0.00 0.00 0.00 0.01 0.02 0.01 0.00 0.01 0.01 0.00 0.00 0.00 0.00 0.00 0.01 0.00 0.00 0.00 0.00 0.00 0.02 0.03 0.03 0.02 0.01 0.02 0.04 0.07 0.10 0.11 0.08 0.05 0.05
0.00 0.00 0.00 0.00 0.00 0.00 0.00 0.00 0.00 0.00 0.00 0.00 0.00 0.00 0.00 0.00 0.00 0.00 0.00 0.00 0.00 0.00 0.00 0.00 0.00 0.00 0.00 0.00 0.00 0.00 0.00 0.00 0.00 0.00 0.00 0.00 0.01 0.00 0.00 0.00 0.00 0.01 0.01 0.02 0.05 0.04 0.03 0.05 0.08 0.11 0.13 0.14 0.14 0.13
0.00 0.00 0.00 0.00 0.00 0.01 0.01 0.00 0.00 0.00 0.00 0.00 0.00 0.00 0.00 0.00 0.00 0.00 0.00 0.00 0.00 0.00 0.00 0.00 0.00 0.00 0.00 0.00 0.00 0.00 0.00 0.00 0.00 0.00 0.00 0.00 0.00 0.00 0.00 0.00 0.00 0.00 0.00 0.01 0.03 0.07 0.12 0.11 0.11 0.12 0.14 0.15 0.16 0.16
0.00 0.00 0.00 0.00 0.02 0.02 0.00 0.00 0.00 0.00 0.00 0.00 0.00 0.00 0.00 0.00 0.00 0.00 0.00 0.00 0.00 0.00 0.00 0.00 0.00 0.00 0.00 0.00 0.00 0.00 0.00 0.01 0.00 0.00 0.00 0.00 0.00 0.01 0.01 0.00 0.00 0.01 0.00 0.01 0.01 0.00 0.01 0.03 0.05 0.08 0.10 0.13 0.15 0.18
0.01 0.00 0.00 0.00 0.01 0.00 0.00 0.00 0.00 0.00 0.00 0.00 0.00 0.00 0.00 0.00 0.00 0.00 0.00 0.00 0.00 0.00 0.00 0.00 0.00 0.01 0.00 0.00 0.00 0.00 0.01 0.00 0.00 0.00 0.00 0.00 0.01 0.01 0.01 0.00 0.01 0.01 0.00 0.00 0.00 0.01 0.01 0.01 0.01 0.01 0.01 0.01 0.02 0.05
0.01 0.01 0.00 0.00 0.00 0.00 0.00 0.00 0.00 0.00 0.00 0.00 0.00 0.00 0.00 0.00 0.00 0.00 0.00 0.00 0.00 0.00 0.00 0.00 0.00 0.00 0.00 0.00 0.00 0.00 0.01 0.01 0.01 0.01 0.01 0.01 0.00 0.01 0.01 0.01 0.00 0.01 0.01 0.01 0.01 0.01 0.01 0.01 0.01 0.00 0.01 0.00 0.00 0.00

GFSWCAN_prec_precacc24_321.txt.gz
Total_Precipitation_Accumulation
0.30 0.32 0.32 0.25 0.14 0.12 0.18 0.22 0.21 0.16 0.14 0.11 0.20 0.37 0.36 0.14 0.38 0.38 0.26 0.26 0.24 0.27 0.05 0.00 0.00 0.00 0.00 0.00 0.00 0.00 0.00 0.00 0.00 0.00 0.00 0.00 0.01 0.01 0.01 0.01 0.00 0.00 0.00 0.00 0.00 0.00 0.00 0.00 0.00 0.00 0.00 0.00 0.00 0.00
0.29 0.31 0.31 0.24 0.21 0.21 0.21 0.29 0.27 0.19 0.17 0.11 0.16 0.30 0.38 0.19 0.30 0.33 0.27 0.29 0.25 0.24 0.06 0.00 0.00 0.00 0.00 0.00 0.00 0.00 0.00 0.00 0.00 0.00 0.00 0.00 0.00 0.00 0.01 0.01 0.02 0.02 0.00 0.00 0.00 0.00 0.00 0.00 0.00 0.00 0.00 0.00 0.00 0.00
0.24 0.27 0.29 0.30 0.26 0.22 0.20 0.26 0.30 0.18 0.19 0.13 0.16 0.26 0.36 0.23 0.23 0.28 0.21 0.28 0.28 0.21 0.08 0.00 0.00 0.00 0.00 0.00 0.00 0.00 0.00 0.00 0.00 0.00 0.01 0.03 0.04 0.01 0.01 0.01 0.01 0.01 0.02 0.03 0.03 0.01 0.00 0.00 0.00 0.00 0.00 0.00 0.00 0.00
0.26 0.26 0.29 0.28 0.23 0.23 0.19 0.23 0.29 0.23 0.22 0.15 0.17 0.25 0.32 0.22 0.15 0.18 0.21 0.23 0.29 0.16 0.08 0.04 0.00 0.00 0.00 0.00 0.01 0.01 0.00 0.00 0.00 0.01 0.01 0.02 0.04 0.03 0.03 0.02 0.01 0.01 0.01 0.01 0.01 0.00 0.00 0.00 0.00 0.00 0.00 0.00 0.00 0.00
0.25 0.25 0.24 0.22 0.22 0.24 0.22 0.26 0.31 0.24 0.24 0.17 0.22 0.26 0.31 0.16 0.09 0.16 0.17 0.23 0.16 0.17 0.11 0.02 0.02 0.00 0.00 0.00 0.01 0.02 0.01 0.00 0.01 0.01 0.04 0.02 0.00 0.01 0.04 0.07 0.02 0.00 0.00 0.00 0.00 0.00 0.00 0.00 0.00 0.00 0.00 0.00 0.00 0.00
0.24 0.24 0.18 0.16 0.23 0.26 0.29 0.31 0.34 0.26 0.25 0.18 0.26 0.34 0.33 0.16 0.14 0.24 0.39 0.31 0.16 0.18 0.13 0.10 0.02 0.00 0.00 0.00 0.00 0.01 0.01 0.02 0.01 0.01 0.01 0.01 0.01 0.01 0.02 0.03 0.03 0.01 0.00 0.00 0.00 0.00 0.00 0.00 0.00 0.00 0.00 0.00 0.00 0.00
0.27 0.21 0.16 0.16 0.24 0.30 0.33 0.36 0.36 0.27 0.23 0.21 0.26 0.36 0.30 0.16 0.20 0.32 0.28 0.18 0.14 0.15 0.16 0.13 0.10 0.01 0.00 0.00 0.00 0.01 0.01 0.01 0.01 0.02 0.01 0.00 0.00 0.01 0.01 0.00 0.00 0.00 0.00 0.00 0.00 0.00 0.00 0.00 0.00 0.00 0.00 0.00 0.00 0.00
0.26 0.18 0.16 0.20 0.26 0.31 0.34 0.41 0.36 0.27 0.24 0.23 0.29 0.40 0.44 0.40 0.37 0.21 0.05 0.03 0.13 0.20 0.16 0.14 0.16 0.07 0.00 0.00 0.00 0.00 0.01 0.01 0.01 0.01 0.02 0.03 0.01 0.01 0.01 0.00 0.00 0.00 0.00 0.00 0.00 0.00 0.00 0.00 0.00 0.00 0.00 0.00 0.00 0.00
0.24 0.23 0.20 0.24 0.24 0.31 0.33 0.42 0.41 0.32 0.33 0.35 0.45 0.64 0.88 0.81 0.49 0.31 0.17 0.11 0.19 0.28 0.16 0.06 0.06 0.11 0.04 0.00 0.00 0.00 0.00 0.01 0.01 0.00 0.00 0.01 0.03 0.04 0.00 0.00 0.00 0.00 0.00 0.00 0.00 0.00 0.00 0.00 0.00 0.00 0.00 0.00 0.00 0.00
0.24 0.28 0.24 0.26 0.27 0.37 0.41 0.51 0.52 0.49 0.59 0.68 1.01 1.34 1.28 0.69 0.26 0.34 0.38 0.45 0.63 0.62 0.17 0.02 0.00 0.05 0.09 0.05 0.02 0.00 0.00 0.00 0.00 0.00 0.00 0.00 0.00 0.00 0.00 0.00 0.00 0.00 0.00 0.00 0.00 0.00 0.00 0.00 0.00 0.00 0.00 0.00 0.00 0.00
0.30 0.31 0.27 0.33 0.39 0.51 0.56 0.58 0.63 0.78 0.98 1.01 1.11 0.87 0.59 0.42 0.44 0.79 0.91 0.69 0.58 0.34 0.12 0.01 0.00 0.00 0.05 0.15 0.15 0.08 0.08 0.05 0.01 0.00 0.00 0.00 0.00 0.00 0.00 0.00 0.00 0.00 0.00 0.00 0.00 0.00 0.00 0.00 0.00 0.00 0.00 0.00 0.00 0.00
0.34 0.27 0.32 0.41 0.44 0.49 0.50 0.53 0.60 0.61 0.53 0.34 0.30 0.42 0.48 0.52 0.79 0.86 0.71 0.37 0.21 0.06 0.00 0.00 0.00 0.00 0.00 0.06 0.19 0.25 0.18 0.17 0.11 0.02 0.00 0.00 0.00 0.00 0.00 0.00 0.00 0.00 0.00 0.00 0.00 0.00 0.00 0.00 0.00 0.00 0.00 0.00 0.00 0.00
0.29 0.26 0.27 0.37 0.35 0.37 0.42 0.50 0.53 0.35 0.20 0.15 0.24 0.46 0.55 0.61 0.66 0.38 0.28 0.11 0.03 0.00 0.00 0.00 0.01 0.01 0.00 0.01 0.03 0.05 0.10 0.10 0.03 0.01 0.01 0.00 0.00 0.00 0.00 0.00 0.00 0.00 0.00 0.00 0.00 0.00 0.00 0.00 0.00 0.00 0.00 0.00 0.00 0.00
0.22 0.18 0.23 0.33 0.33 0.41 0.47 0.63 0.51 0.27 0.21 0.40 0.44 0.43 0.32 0.22 0.12 0.04 0.01 0.00 0.00 0.00 0.00 0.00 0.00 0.00 0.00 0.01 0.02 0.03 0.01 0.00 0.00 0.00 0.01 0.01 0.00 0.00 0.01 0.01 0.00 0.00 0.00 0.00 0.00 0.00 0.00 0.00 0.00 0.00 0.00 0.00 0.00 0.00
0.15 0.19 0.33 0.52 0.47 0.52 0.65 0.46 0.27 0.16 0.19 0.24 0.13 0.11 0.09 0.04 0.01 0.00 0.01 0.00 0.00 0.00 0.00 0.00 0.01 0.01 0.01 0.02 0.02 0.01 0.01 0.01 0.00 0.02 0.04 0.01 0.00 0.00 0.00 0.00 0.00 0.00 0.00 0.00 0.00 0.00 0.00 0.00 0.00 0.00 0.00 0.00 0.00 0.00
0.30 0.42 0.47 0.51 0.53 0.54 0.48 0.29 0.21 0.19 0.19 0.16 0.23 0.15 0.04 0.01 0.03 0.01 0.01 0.02 0.01 0.01 0.00 0.00 0.01 0.03 0.04 0.04 0.02 0.00 0.00 0.00 0.01 0.01 0.00 0.00 0.00 0.00 0.00 0.00 0.00 0.00 0.00 0.00 0.00 0.00 0.00 0.00 0.00 0.00 0.00 0.00 0.00 0.00
0.26 0.49 0.43 0.42 0.45 0.43 0.36 0.26 0.32 0.41 0.35 0.29 0.20 0.02 0.01 0.01 0.02 0.02 0.01 0.01 0.00 0.01 0.01 0.01 0.01 0.01 0.01 0.00 0.00 0.00 0.00 0.00 0.00 0.00 0.00 0.00 0.00 0.00 0.00 0.00 0.00 0.00 0.00 0.00 0.00 0.00 0.00 0.00 0.00 0.00 0.00 0.00 0.00 0.00
0.16 0.24 0.27 0.25 0.30 0.33 0.28 0.19 0.29 0.36 0.39 0.27 0.12 0.03 0.01 0.00 0.00 0.00 0.01 0.02 0.01 0.01 0.01 0.01 0.00 0.00 0.00 0.00 0.02 0.01 0.01 0.02 0.02 0.01 0.00 0.00 0.00 0.00 0.00 0.00 0.00 0.00 0.00 0.00 0.00 0.00 0.00 0.00 0.00 0.00 0.00 0.00 0.00 0.00
0.13 0.13 0.13 0.11 0.08 0.15 0.32 0.31 0.13 0.26 0.40 0.22 0.11 0.03 0.01 0.02 0.01 0.00 0.04 0.12 0.04 0.01 0.02 0.02 0.03 0.03 0.03 0.03 0.03 0.03 0.06 0.06 0.04 0.02 0.01 0.00 0.00 0.00 0.00 0.00 0.00 0.00 0.00 0.00 0.00 0.00 0.00 0.00 0.00 0.00 0.00 0.00 0.00 0.00
0.14 0.12 0.09 0.05 0.04 0.06 0.14 0.23 0.05 0.16 0.25 0.27 0.21 0.13 0.07 0.10 0.09 0.05 0.11 0.16 0.09 0.06 0.09 0.10 0.08 0.07 0.08 0.06 0.04 0.05 0.06 0.04 0.02 0.01 0.01 0.01 0.00 0.00 0.00 0.00 0.00 0.00 0.00 0.00 0.00 0.00 0.00 0.00 0.00 0.00 0.00 0.00 0.00 0.00
0.05 0.06 0.06 0.05 0.04 0.00 0.02 0.05 0.07 0.10 0.19 0.22 0.21 0.15 0.19 0.16 0.17 0.16 0.15 0.14 0.10 0.12 0.12 0.08 0.05 0.04 0.04 0.04 0.04 0.06 0.08 0.07 0.04 0.01 0.00 0.01 0.01 0.00 0.00 0.00 0.00 0.00 0.00 0.00 0.00 0.00 0.00 0.00 0.00 0.00 0.00 0.00 0.00 0.00
0.01 0.02 0.02 0.01 0.01 0.00 0.00 0.00 0.02 0.02 0.03 0.07 0.07 0.06 0.09 0.11 0.12 0.11 0.07 0.03 0.07 0.08 0.04 0.02 0.01 0.00 0.00 0.00 0.00 0.00 0.01 0.01 0.01 0.00 0.00 0.00 0.00 0.00 0.00 0.00 0.01 0.00 0.00 0.00 0.00 0.00 0.00 0.00 0.00 0.00 0.00 0.00 0.00 0.00
0.00 0.00 0.01 0.02 0.04 0.05 0.03 0.01 0.00 0.00 0.01 0.03 0.03 0.02 0.03 0.03 0.03 0.02 0.06 0.05 0.03 0.01 0.00 0.00 0.00 0.00 0.00 0.00 0.00 0.00 0.00 0.00 0.00 0.00 0.00 0.00 0.00 0.00 0.00 0.00 0.01 0.02 0.01 0.00 0.00 0.00 0.00 0.00 0.00 0.00 0.00 0.00 0.00 0.01
0.00 0.01 0.02 0.02 0.01 0.02 0.02 0.00 0.00 0.00 0.00 0.00 0.00 0.00 0.00 0.00 0.00 0.01 0.03 0.02 0.01 0.00 0.00 0.00 0.00 0.00 0.00 0.00 0.00 0.01 0.01 0.01 0.01 0.00 0.00 0.01 0.01 0.01 0.00 0.01 0.01 0.03 0.02 0.01 0.01 0.01 0.00 0.00 0.00 0.00 0.00 0.00 0.00 0.01
0.01 0.01 0.00 0.00 0.00 0.00 0.00 0.00 0.00 0.00 0.00 0.00 0.00 0.00 0.00 0.00 0.00 0.01 0.01 0.01 0.02 0.00 0.00 0.00 0.00 0.00 0.00 0.01 0.01 0.01 0.01 0.00 0.01 0.00 0.00 0.01 0.02 0.02 0.02 0.01 0.03 0.07 0.09 0.06 0.01 0.02 0.02 0.02 0.01 0.01 0.01 0.03 0.03 0.02
0.00 0.00 0.00 0.00 0.00 0.00 0.00 0.00 0.00 0.00 0.00 0.00 0.00 0.00 0.00 0.00 0.00 0.00 0.00 0.00 0.01 0.00 0.00 0.00 0.00 0.00 0.01 0.01 0.02 0.03 0.01 0.02 0.01 0.01 0.01 0.03 0.04 0.06 0.06 0.05 0.04 0.06 0.09 0.12 0.11 0.13 0.14 0.12 0.11 0.08 0.04 0.04 0.06 0.06
0.00 0.00 0.00 0.00 0.00 0.00 0.00 0.00 0.00 0.00 0.00 0.00 0.00 0.00 0.00 0.00 0.00 0.00 0.00 0.00 0.00 0.00 0.00 0.00 0.00 0.00 0.00 0.00 0.01 0.02 0.00 0.00 0.01 0.01 0.01 0.01 0.02 0.03 0.05 0.05 0.05 0.06 0.08 0.09 0.13 0.14 0.11 0.10 0.09 0.07 0.06 0.05 0.04 0.05
0.00 0.00 0.00 0.00 0.00 0.00 0.00 0.00 0.00 0.00 0.00 0.00 0.00 0.00 0.00 0.00 0.01 0.00 0.00 0.00 0.00 0.00 0.00 0.00 0.00 0.00 0.00 0.00 0.00 0.00 0.00 0.00 0.00 0.00 0.00 0.01 0.00 0.00 0.00 0.00 0.00 0.01 0.02 0.03 0.02 0.01 0.02 0.04 0.07 0.11 0.11 0.08 0.05 0.05
0.00 0.00 0.00 0.00 0.00 0.00 0.00 0.00 0.00 0.00 0.00 0.00 0.00 0.00 0.01 0.02 0.01 0.00 0.00 0.00 0.00 0.00 0.00 0.00 0.00 0.00 0.00 0.00 0.00 0.00 0.00 0.00 0.00 0.00 0.00 0.00 0.00 0.00 0.00 0.00 0.00 0.01 0.01 0.02 0.06 0.04 0.03 0.06 0.08 0.11 0.13 0.15 0.14 0.14
0.00 0.00 0.00 0.00 0.01 0.02 0.03 0.01 0.00 0.00 0.00 0.00 0.00 0.01 0.01 0.02 0.01 0.00 0.00 0.00 0.00 0.00 0.00 0.00 0.00 0.00 0.00 0.00 0.00 0.00 0.00 0.00 0.00 0.00 0.00 0.00 0.00 0.00 0.00 0.01 0.00 0.00 0.01 0.01 0.03 0.07 0.12 0.11 0.11 0.12 0.14 0.15 0.16 0.16
0.00 0.00 0.00 0.00 0.05 0.05 0.02 0.00 0.00 0.00 0.00 0.00 0.00 0.00 0.02 0.04 0.02 0.01 0.00 0.00 0.00 0.00 0.00 0.00 0.00 0.00 0.00 0.00 0.00 0.00 0.00 0.01 0.00 0.00 0.00 0.00 0.00 0.01 0.01 0.00 0.00 0.01 0.00 0.01 0.01 0.01 0.02 0.04 0.05 0.08 0.10 0.13 0.15 0.19
0.01 0.00 0.00 0.01 0.03 0.01 0.00 0.00 0.00 0.00 0.00 0.00 0.00 0.00 0.00 0.00 0.01 0.02 0.01 0.00 0.00 0.00 0.00 0.00 0.00 0.01 0.00 0.00 0.00 0.00 0.01 0.00 0.00 0.00 0.00 0.00 0.01 0.01 0.01 0.01 0.01 0.00 0.00 0.00 0.01 0.00 0.01 0.01 0.01 0.01 0.01 0.01 0.02 0.05
0.01 0.01 0.00 0.00 0.00 0.00 0.00 0.00 0.00 0.00 0.00 0.00 0.00 0.00 0.00 0.00 0.00 0.01 0.00 0.00 0.00 0.00 0.00 0.00 0.00 0.00 0.00 0.00 0.00 0.01 0.01 0.01 0.01 0.01 0.01 0.00 0.00 0.00 0.00 0.01 0.00 0.00 0.00 0.00 0.00 0.00 0.00 0.00 0.01 0.00 0.01 0.00 0.00 0.00

GFSWCAN_prec_precacc24_324.txt.gz
Total_Precipitation_Accumulation
0.07 0.08 0.09 0.08 0.05 0.05 0.08 0.09 0.10 0.09 0.12 0.11 0.21 0.40 0.37 0.14 0.38 0.38 0.26 0.26 0.24 0.27 0.05 0.00 0.00 0.00 0.00 0.00 0.00 0.00 0.00 0.00 0.00 0.00 0.00 0.00 0.01 0.01 0.01 0.01 0.00 0.01 0.00 0.00 0.00 0.00 0.00 0.00 0.00 0.00 0.00 0.00 0.00 0.00
0.12 0.14 0.14 0.12 0.12 0.11 0.10 0.12 0.14 0.10 0.11 0.09 0.16 0.34 0.39 0.19 0.30 0.33 0.27 0.29 0.25 0.24 0.06 0.00 0.00 0.00 0.00 0.00 0.00 0.00 0.00 0.00 0.00 0.00 0.00 0.00 0.01 0.00 0.01 0.02 0.02 0.03 0.01 0.01 0.00 0.00 0.00 0.00 0.00 0.00 0.00 0.00 0.00 0.00
0.19 0.22 0.22 0.22 0.19 0.15 0.13 0.15 0.17 0.10 0.14 0.08 0.13 0.26 0.37 0.23 0.23 0.28 0.22 0.29 0.28 0.21 0.08 0.00 0.00 0.00 0.00 0.00 0.00 0.00 0.00 0.00 0.00 0.00 0.01 0.03 0.04 0.01 0.01 0.02 0.01 0.01 0.02 0.06 0.08 0.04 0.01 0.00 0.00 0.00 0.00 0.00 0.00 0.00
0.26 0.26 0.27 0.26 0.22 0.20 0.16 0.18 0.23 0.17 0.17 0.12 0.15 0.23 0.31 0.22 0.15 0.18 0.21 0.24 0.29 0.16 0.08 0.04 0.00 0.00 0.00 0.00 0.01 0.01 0.00 0.00 0.00 0.01 0.01 0.02 0.04 0.03 0.03 0.02 0.02 0.02 0.01 0.01 0.03 0.02 0.02 0.00 0.00 0.00 0.00 0.00 0.00 0.00
0.25 0.25 0.23 0.21 0.21 0.23 0.21 0.25 0.29 0.22 0.21 0.14 0.20 0.25 0.31 0.17 0.10 0.16 0.17 0.23 0.16 0.17 0.11 0.02 0.02 0.00 0.00 0.00 0.01 0.02 0.01 0.00 0.01 0.01 0.03 0.02 0.00 0.01 0.04 0.08 0.08 0.04 0.03 0.05 0.04 0.01 0.02 0.00 0.00 0.00 0.00 0.00 0.00 0.00
0.24 0.24 0.18 0.16 0.23 0.25 0.29 0.30 0.34 0.25 0.25 0.18 0.26 0.34 0.33 0.16 0.15 0.25 0.40 0.31 0.16 0.18 0.13 0.10 0.02 0.00 0.00 0.00 0.00 0.01 0.01 0.02 0.01 0.01 0.01 0.01 0.01 0.02 0.03 0.03 0.03 0.03 0.03 0.02 0.00 0.00 0.00 0.00 0.00 0.00 0.00 0.00 0.00 0.00
0.27 0.21 0.15 0.16 0.24 0.30 0.33 0.36 0.36 0.27 0.23 0.21 0.27 0.36 0.31 0.17 0.22 0.33 0.29 0.18 0.14 0.16 0.17 0.13 0.10 0.01 0.00 0.00 0.00 0.01 0.01 0.01 0.01 0.02 0.01 0.00 0.00 0.01 0.01 0.00 0.00 0.00 0.00 0.00 0.00 0.00 0.00 0.00 0.00 0.00 0.00 0.00 0.00 0.00
0.26 0.18 0.16 0.20 0.26 0.31 0.34 0.41 0.36 0.27 0.24 0.23 0.30 0.41 0.44 0.44 0.40 0.22 0.05 0.04 0.13 0.21 0.16 0.14 0.16 0.07 0.00 0.00 0.00 0.00 0.01 0.01 0.01 0.01 0.02 0.03 0.01 0.01 0.01 0.00 0.00 0.00 0.00 0.00 0.00 0.00 0.00 0.00 0.00 0.00 0.00 0.00 0.00 0.00
0.24 0.23 0.20 0.24 0.24 0.31 0.33 0.42 0.42 0.32 0.33 0.35 0.46 0.65 0.90 0.84 0.51 0.31 0.17 0.11 0.19 0.29 0.16 0.06 0.06 0.11 0.04 0.00 0.00 0.00 0.00 0.01 0.01 0.00 0.00 0.01 0.03 0.04 0.01 0.01 0.00 0.00 0.00 0.00 0.01 0.01 0.02 0.01 0.01 0.00 0.00 0.00 0.00 0.00
0.24 0.28 0.24 0.26 0.27 0.37 0.41 0.51 0.54 0.51 0.61 0.70 1.04 1.37 1.32 0.72 0.27 0.36 0.41 0.47 0.68 0.63 0.18 0.02 0.00 0.05 0.09 0.05 0.02 0.00 0.00 0.00 0.00 0.00 0.00 0.00 0.00 0.00 0.00 0.00 0.00 0.00 0.00 0.00 0.00 0.00 0.00 0.00 0.00 0.00 0.00 0.00 0.00 0.00
0.30 0.31 0.27 0.33 0.39 0.51 0.57 0.62 0.67 0.81 1.01 1.06 1.14 0.89 0.63 0.45 0.48 0.83 0.92 0.69 0.59 0.34 0.12 0.01 0.00 0.00 0.05 0.15 0.15 0.09 0.09 0.05 0.01 0.00 0.00 0.00 0.00 0.00 0.00 0.00 0.00 0.00 0.00 0.00 0.00 0.00 0.00 0.00 0.00 0.00 0.00 0.00 0.00 0.00
0.34 0.28 0.32 0.41 0.45 0.50 0.53 0.60 0.63 0.64 0.58 0.37 0.31 0.54 0.57 0.54 0.80 0.91 0.72 0.38 0.21 0.07 0.00 0.00 0.00 0.00 0.00 0.06 0.19 0.26 0.22 0.20 0.12 0.02 0.00 0.00 0.00 0.00 0.00 0.00 0.00 0.00 0.00 0.00 0.00 0.00 0.00 0.00 0.00 0.00 0.00 0.00 0.00 0.00
0.29 0.26 0.27 0.37 0.36 0.40 0.48 0.55 0.56 0.39 0.25 0.16 0.27 0.56 0.57 0.62 0.68 0.39 0.29 0.11 0.03 0.00 0.00 0.00 0.00 0.00 0.00 0.01 0.03 0.05 0.11 0.12 0.06 0.03 0.01 0.00 0.00 0.00 0.00 0.00 0.00 0.00 0.00 0.00 0.00 0.00 0.00 0.00 0.00 0.00 0.00 0.00 0.00 0.00
0.23 0.19 0.24 0.36 0.34 0.48 0.55 0.73 0.57 0.31 0.21 0.42 0.47 0.47 0.32 0.23 0.12 0.04 0.01 0.00 0.00 0.00 0.00 0.00 0.00 0.00 0.00 0.01 0.02 0.03 0.01 0.00 0.00 0.00 0.01 0.01 0.00 0.00 0.01 0.01 0.01 0.02 0.01 0.01 0.01 0.00 0.00 0.00 0.00 0.00 0.00 0.00 0.00 0.00
0.15 0.20 0.37 0.61 0.53 0.62 0.80 0.57 0.39 0.17 0.19 0.26 0.14 0.12 0.09 0.04 0.01 0.00 0.01 0.00 0.00 0.00 0.00 0.00 0.00 0.00 0.01 0.02 0.02 0.01 0.01 0.00 0.00 0.02 0.04 0.01 0.00 0.00 0.00 0.00 0.00 0.00 0.00 0.01 0.00 0.00 0.00 0.00 0.00 0.00 0.00 0.00 0.00 0.00
0.30 0.46 0.57 0.62 0.66 0.66 0.65 0.48 0.34 0.21 0.21 0.19 0.23 0.15 0.04 0.01 0.03 0.01 0.01 0.02 0.01 0.01 0.00 0.00 0.01 0.03 0.05 0.04 0.02 0.00 0.00 0.00 0.01 0.01 0.00 0.00 0.00 0.00 0.00 0.00 0.00 0.00 0.00 0.00 0.00 0.00 0.00 0.00 0.00 0.00 0.00 0.00 0.00 0.00
0.30 0.56 0.53 0.55 0.62 0.63 0.60 0.47 0.48 0.48 0.40 0.31 0.20 0.02 0.01 0.01 0.02 0.02 0.01 0.01 0.00 0.01 0.01 0.01 0.01 0.01 0.01 0.00 0.00 0.00 0.00 0.00 0.00 0.00 0.00 0.00 0.00 0.00 0.00 0.00 0.00 0.00 0.00 0.00 0.00 0.00 0.00 0.00 0.00 0.00 0.00 0.00 0.00 0.00
0.18 0.27 0.40 0.51 0.57 0.68 0.47 0.29 0.37 0.43 0.42 0.28 0.12 0.03 0.01 0.00 0.00 0.00 0.01 0.02 0.01 0.01 0.01 0.01 0.00 0.00 0.00 0.00 0.02 0.01 0.01 0.01 0.02 0.01 0.00 0.00 0.00 0.00 0.00 0.00 0.00 0.00 0.00 0.00 0.00 0.00 0.00 0.00 0.00 0.00 0.00 0.00 0.00 0.00
0.15 0.24 0.33 0.35 0.24 0.31 0.51 0.47 0.15 0.26 0.40 0.22 0.11 0.03 0.01 0.02 0.01 0.00 0.04 0.12 0.04 0.02 0.03 0.03 0.04 0.02 0.03 0.03 0.03 0.03 0.05 0.05 0.04 0.02 0.01 0.00 0.00 0.00 0.00 0.00 0.00 0.00 0.00 0.00 0.00 0.00 0.00 0.00 0.00 0.00 0.00 0.00 0.00 0.00
0.34 0.31 0.24 0.13 0.06 0.07 0.20 0.32 0.05 0.16 0.26 0.27 0.21 0.13 0.07 0.10 0.09 0.06 0.11 0.20 0.18 0.13 0.15 0.14 0.10 0.06 0.08 0.06 0.04 0.05 0.06 0.04 0.02 0.01 0.02 0.01 0.00 0.00 0.00 0.00 0.00 0.00 0.00 0.00 0.00 0.00 0.00 0.00 0.00 0.00 0.00 0.00 0.00 0.00
0.23 0.25 0.22 0.16 0.10 0.02 0.03 0.07 0.07 0.10 0.20 0.23 0.23 0.16 0.21 0.18 0.20 0.20 0.21 0.26 0.26 0.24 0.20 0.12 0.08 0.07 0.05 0.04 0.06 0.07 0.09 0.08 0.04 0.01 0.01 0.01 0.00 0.00 0.00 0.00 0.00 0.00 0.00 0.00 0.00 0.00 0.00 0.00 0.00 0.00 0.00 0.00 0.00 0.00
0.14 0.13 0.10 0.07 0.03 0.00 0.00 0.00 0.02 0.02 0.04 0.08 0.08 0.08 0.13 0.17 0.18 0.16 0.12 0.12 0.18 0.20 0.14 0.09 0.08 0.06 0.03 0.02 0.01 0.00 0.01 0.01 0.01 0.00 0.00 0.00 0.00 0.00 0.00 0.00 0.00 0.00 0.00 0.00 0.00 0.00 0.00 0.00 0.00 0.00 0.00 0.00 0.00 0.00
0.02 0.02 0.05 0.09 0.07 0.05 0.04 0.01 0.00 0.00 0.02 0.05 0.05 0.05 0.07 0.08 0.07 0.05 0.12 0.14 0.12 0.12 0.07 0.05 0.05 0.03 0.01 0.01 0.00 0.00 0.00 0.00 0.00 0.00 0.00 0.00 0.00 0.00 0.00 0.00 0.00 0.01 0.00 0.00 0.00 0.00 0.00 0.00 0.00 0.00 0.00 0.00 0.00 0.00
0.01 0.05 0.08 0.05 0.02 0.04 0.03 0.00 0.00 0.00 0.00 0.00 0.01 0.02 0.02 0.02 0.01 0.02 0.05 0.08 0.08 0.06 0.01 0.01 0.01 0.01 0.00 0.00 0.00 0.01 0.01 0.01 0.01 0.00 0.00 0.01 0.01 0.01 0.00 0.00 0.00 0.01 0.02 0.01 0.01 0.01 0.00 0.01 0.00 0.00 0.00 0.00 0.00 0.01
0.04 0.03 0.01 0.00 0.00 0.00 0.00 0.00 0.00 0.00 0.00 0.00 0.00 0.00 0.00 0.00 0.01 0.02 0.02 0.05 0.05 0.02 0.00 0.00 0.00 0.00 0.00 0.01 0.01 0.01 0.01 0.00 0.00 0.00 0.00 0.01 0.02 0.02 0.02 0.01 0.02 0.02 0.05 0.04 0.01 0.02 0.02 0.02 0.01 0.01 0.02 0.03 0.04 0.02
0.01 0.00 0.00 0.00 0.00 0.00 0.00 0.00 0.00 0.00 0.00 0.00 0.00 0.00 0.00 0.00 0.00 0.01 0.00 0.01 0.01 0.00 0.00 0.00 0.00 0.00 0.01 0.01 0.01 0.01 0.00 0.00 0.01 0.01 0.01 0.03 0.04 0.06 0.06 0.05 0.04 0.06 0.07 0.06 0.06 0.12 0.14 0.12 0.12 0.08 0.04 0.04 0.06 0.07
0.00 0.00 0.00 0.00 0.00 0.00 0.00 0.00 0.00 0.00 0.00 0.00 0.00 0.00 0.00 0.00 0.00 0.00 0.00 0.00 0.00 0.00 0.00 0.00 0.00 0.00 0.00 0.00 0.00 0.00 0.00 0.00 0.00 0.00 0.00 0.01 0.02 0.03 0.05 0.05 0.05 0.06 0.05 0.05 0.09 0.13 0.11 0.10 0.09 0.07 0.06 0.05 0.04 0.05
0.00 0.00 0.00 0.00 0.00 0.00 0.00 0.00 0.00 0.00 0.00 0.00 0.00 0.00 0.00 0.00 0.01 0.00 0.00 0.00 0.00 0.00 0.00 0.00 0.00 0.00 0.00 0.00 0.00 0.00 0.00 0.00 0.00 0.00 0.00 0.01 0.00 0.00 0.00 0.00 0.00 0.01 0.00 0.01 0.01 0.00 0.02 0.04 0.08 0.11 0.12 0.09 0.05 0.06
0.00 0.00 0.00 0.00 0.00 0.00 0.00 0.00 0.00 0.00 0.00 0.00 0.00 0.01 0.01 0.03 0.03 0.01 0.00 0.00 0.00 0.00 0.00 0.00 0.00 0.00 0.00 0.00 0.00 0.00 0.00 0.00 0.00 0.00 0.00 0.00 0.00 0.00 0.00 0.00 0.00 0.00 0.01 0.01 0.04 0.03 0.03 0.05 0.08 0.11 0.13 0.15 0.14 0.14
0.00 0.00 0.00 0.00 0.01 0.03 0.03 0.01 0.00 0.00 0.00 0.00 0.00 0.01 0.02 0.03 0.02 0.00 0.00 0.00 0.00 0.00 0.00 0.00 0.00 0.00 0.00 0.00 0.00 0.00 0.00 0.00 0.00 0.00 0.00 0.00 0.00 0.00 0.00 0.01 0.00 0.00 0.01 0.01 0.03 0.06 0.10 0.10 0.11 0.12 0.14 0.15 0.16 0.16
0.00 0.00 0.00 0.01 0.05 0.07 0.04 0.02 0.01 0.00 0.00 0.00 0.00 0.00 0.03 0.05 0.03 0.01 0.00 0.00 0.00 0.00 0.00 0.00 0.00 0.00 0.00 0.00 0.00 0.00 0.00 0.01 0.00 0.00 0.00 0.00 0.00 0.01 0.01 0.00 0.00 0.01 0.00 0.01 0.01 0.01 0.01 0.03 0.05 0.08 0.10 0.13 0.15 0.18
0.01 0.00 0.00 0.02 0.05 0.03 0.01 0.00 0.00 0.02 0.02 0.00 0.00 0.00 0.00 0.00 0.02 0.03 0.01 0.00 0.00 0.00 0.00 0.00 0.00 0.01 0.00 0.00 0.00 0.00 0.01 0.00 0.00 0.00 0.00 0.00 0.01 0.01 0.01 0.01 0.01 0.00 0.01 0.00 0.00 0.00 0.01 0.01 0.01 0.01 0.01 0.01 0.02 0.05
0.01 0.01 0.00 0.00 0.00 0.00 0.00 0.00 0.00 0.01 0.01 0.01 0.01 0.00 0.00 0.00 0.00 0.01 0.01 0.00 0.00 0.00 0.00 0.00 0.00 0.00 0.00 0.00 0.00 0.01 0.01 0.01 0.01 0.01 0.01 0.00 0.00 0.00 0.00 0.01 0.00 0.00 0.00 0.00 0.00 0.00 0.00 0.00 0.01 0.01 0.00 0.00 0.00 0.00

GFSWCAN_prec_precacc24_330.txt.gz
Total_Precipitation_Accumulation
0.16 0.06 0.02 0.01 0.01 0.00 0.02 0.01 0.00 0.00 0.00 0.02 0.02 0.07 0.05 0.09 0.38 0.39 0.28 0.26 0.26 0.29 0.06 0.00 0.00 0.00 0.00 0.00 0.00 0.00 0.00 0.00 0.00 0.00 0.00 0.00 0.01 0.01 0.01 0.01 0.00 0.01 0.01 0.01 0.01 0.01 0.01 0.00 0.00 0.00 0.00 0.00 0.00 0.00
0.23 0.06 0.01 0.01 0.02 0.01 0.02 0.02 0.00 0.00 0.00 0.01 0.02 0.16 0.15 0.15 0.30 0.34 0.30 0.29 0.25 0.26 0.08 0.00 0.00 0.00 0.00 0.00 0.00 0.00 0.00 0.00 0.00 0.00 0.01 0.00 0.01 0.00 0.01 0.02 0.02 0.03 0.02 0.03 0.02 0.02 0.00 0.00 0.00 0.00 0.00 0.00 0.00 0.00
0.29 0.10 0.01 0.00 0.01 0.01 0.03 0.02 0.01 0.00 0.00 0.01 0.04 0.22 0.24 0.21 0.23 0.29 0.25 0.29 0.28 0.22 0.09 0.00 0.00 0.00 0.00 0.00 0.00 0.00 0.00 0.00 0.00 0.00 0.01 0.04 0.04 0.01 0.01 0.02 0.01 0.01 0.02 0.06 0.08 0.04 0.01 0.01 0.00 0.00 0.00 0.00 0.00 0.01
0.35 0.11 0.02 0.01 0.01 0.01 0.03 0.03 0.03 0.02 0.02 0.05 0.08 0.23 0.28 0.22 0.15 0.19 0.25 0.24 0.30 0.16 0.09 0.04 0.00 0.00 0.00 0.00 0.01 0.01 0.00 0.00 0.00 0.01 0.01 0.02 0.04 0.03 0.04 0.02 0.02 0.02 0.01 0.01 0.03 0.03 0.04 0.01 0.01 0.00 0.00 0.00 0.00 0.00
0.32 0.17 0.02 0.01 0.02 0.02 0.04 0.05 0.07 0.07 0.06 0.06 0.15 0.25 0.31 0.17 0.10 0.17 0.22 0.26 0.17 0.18 0.11 0.03 0.02 0.00 0.00 0.00 0.01 0.02 0.01 0.00 0.01 0.02 0.03 0.02 0.01 0.02 0.05 0.09 0.08 0.04 0.03 0.06 0.05 0.02 0.02 0.01 0.00 0.00 0.00 0.00 0.00 0.00
0.28 0.16 0.03 0.02 0.03 0.04 0.08 0.10 0.12 0.10 0.11 0.08 0.18 0.33 0.33 0.16 0.16 0.25 0.40 0.32 0.16 0.18 0.14 0.11 0.03 0.00 0.00 0.00 0.00 0.01 0.01 0.02 0.01 0.02 0.01 0.01 0.01 0.03 0.07 0.04 0.03 0.03 0.03 0.02 0.00 0.00 0.00 0.00 0.00 0.00 0.00 0.00 0.00 0.00
0.33 0.13 0.05 0.05 0.07 0.09 0.12 0.15 0.15 0.12 0.11 0.12 0.22 0.35 0.30 0.17 0.25 0.34 0.30 0.19 0.14 0.16 0.17 0.13 0.11 0.01 0.00 0.00 0.00 0.01 0.01 0.02 0.01 0.02 0.01 0.00 0.00 0.02 0.03 0.00 0.00 0.00 0.00 0.00 0.00 0.00 0.00 0.00 0.00 0.00 0.00 0.00 0.00 0.00
0.39 0.13 0.09 0.09 0.11 0.14 0.15 0.17 0.16 0.13 0.14 0.17 0.26 0.40 0.44 0.49 0.42 0.25 0.05 0.04 0.14 0.22 0.17 0.15 0.17 0.07 0.00 0.00 0.01 0.00 0.01 0.01 0.02 0.03 0.04 0.03 0.02 0.02 0.02 0.00 0.00 0.00 0.00 0.00 0.00 0.00 0.00 0.00 0.01 0.01 0.01 0.01 0.01 0.01
0.38 0.19 0.13 0.15 0.14 0.17 0.18 0.19 0.21 0.20 0.24 0.32 0.45 0.66 0.93 0.89 0.58 0.33 0.17 0.12 0.23 0.35 0.18 0.06 0.07 0.11 0.04 0.01 0.00 0.00 0.01 0.02 0.02 0.02 0.01 0.01 0.04 0.05 0.01 0.01 0.00 0.00 0.00 0.00 0.01 0.01 0.02 0.02 0.02 0.02 0.00 0.00 0.00 0.00
0.30 0.26 0.21 0.21 0.20 0.27 0.29 0.35 0.41 0.42 0.54 0.68 1.06 1.37 1.31 0.75 0.31 0.40 0.43 0.50 0.71 0.68 0.21 0.02 0.01 0.06 0.09 0.06 0.03 0.01 0.01 0.02 0.03 0.01 0.01 0.01 0.01 0.00 0.00 0.00 0.00 0.00 0.00 0.00 0.00 0.00 0.01 0.01 0.00 0.00 0.00 0.00 0.00 0.00
0.30 0.30 0.26 0.31 0.37 0.48 0.53 0.57 0.65 0.80 1.03 1.09 1.15 0.90 0.68 0.48 0.60 0.97 0.93 0.69 0.60 0.35 0.13 0.01 0.00 0.02 0.06 0.17 0.17 0.10 0.10 0.07 0.03 0.01 0.01 0.01 0.00 0.00 0.00 0.00 0.00 0.00 0.00 0.00 0.00 0.00 0.00 0.00 0.00 0.00 0.00 0.00 0.00 0.00
0.35 0.28 0.31 0.41 0.44 0.49 0.53 0.61 0.72 0.74 0.67 0.41 0.32 0.61 0.62 0.66 0.85 0.92 0.73 0.39 0.22 0.07 0.01 0.00 0.00 0.01 0.01 0.07 0.20 0.26 0.22 0.21 0.13 0.02 0.01 0.00 0.00 0.00 0.00 0.00 0.00 0.00 0.00 0.00 0.00 0.00 0.00 0.00 0.00 0.00 0.00 0.00 0.00 0.00
0.30 0.27 0.27 0.37 0.36 0.40 0.48 0.61 0.69 0.51 0.31 0.19 0.29 0.59 0.59 0.63 0.68 0.39 0.30 0.12 0.03 0.00 0.00 0.00 0.01 0.01 0.01 0.01 0.04 0.06 0.11 0.12 0.06 0.03 0.01 0.00 0.00 0.00 0.00 0.00 0.00 0.00 0.00 0.00 0.01 0.01 0.02 0.01 0.00 0.00 0.00 0.00 0.00 0.00
0.23 0.19 0.24 0.36 0.34 0.48 0.58 0.83 0.70 0.39 0.25 0.44 0.48 0.47 0.32 0.23 0.12 0.05 0.01 0.00 0.00 0.00 0.00 0.00 0.01 0.01 0.01 0.02 0.02 0.03 0.02 0.00 0.00 0.00 0.00 0.00 0.00 0.00 0.01 0.01 0.01 0.02 0.01 0.01 0.04 0.05 0.03 0.00 0.00 0.00 0.00 0.00 0.00 0.00
0.15 0.20 0.37 0.61 0.53 0.62 0.89 0.69 0.54 0.25 0.32 0.29 0.15 0.12 0.09 0.04 0.01 0.00 0.00 0.00 0.00 0.00 0.00 0.00 0.01 0.01 0.02 0.02 0.02 0.01 0.01 0.00 0.00 0.01 0.01 0.00 0.00 0.00 0.00 0.00 0.00 0.00 0.01 0.03 0.02 0.00 0.00 0.00 0.00 0.00 0.00 0.00 0.00 0.00
0.31 0.47 0.58 0.63 0.66 0.70 0.82 0.67 0.57 0.34 0.31 0.24 0.26 0.17 0.05 0.03 0.03 0.02 0.02 0.02 0.01 0.01 0.01 0.01 0.02 0.04 0.06 0.05 0.02 0.00 0.00 0.00 0.01 0.00 0.00 0.00 0.00 0.00 0.00 0.00 0.00 0.00 0.01 0.01 0.00 0.00 0.00 0.00 0.00 0.00 0.00 0.00 0.00 0.00
0.31 0.57 0.54 0.56 0.66 0.84 0.95 0.91 0.87 0.61 0.45 0.32 0.21 0.03 0.04 0.03 0.01 0.01 0.02 0.02 0.01 0.02 0.01 0.01 0.02 0.02 0.02 0.01 0.00 0.00 0.00 0.00 0.00 0.00 0.00 0.00 0.00 0.00 0.00 0.00 0.00 0.00 0.00 0.00 0.00 0.00 0.00 0.00 0.00 0.00 0.00 0.00 0.00 0.00
0.20 0.28 0.41 0.56 0.77 1.27 1.00 0.71 0.58 0.50 0.46 0.30 0.14 0.03 0.03 0.02 0.00 0.01 0.01 0.02 0.02 0.03 0.03 0.03 0.02 0.02 0.01 0.01 0.01 0.01 0.01 0.01 0.02 0.01 0.01 0.00 0.00 0.00 0.00 0.00 0.00 0.00 0.00 0.00 0.00 0.00 0.00 0.00 0.00 0.00 0.00 0.00 0.00 0.00
0.19 0.30 0.40 0.52 0.61 0.81 0.98 0.82 0.23 0.28 0.42 0.22 0.12 0.03 0.01 0.02 0.01 0.00 0.04 0.12 0.05 0.03 0.05 0.05 0.07 0.04 0.03 0.04 0.04 0.03 0.05 0.05 0.04 0.02 0.01 0.00 0.00 0.00 0.00 0.00 0.00 0.00 0.00 0.00 0.00 0.00 0.00 0.00 0.00 0.00 0.00 0.00 0.00 0.00
0.50 0.48 0.39 0.29 0.19 0.29 0.46 0.62 0.10 0.17 0.26 0.28 0.21 0.13 0.07 0.10 0.09 0.06 0.11 0.20 0.18 0.13 0.15 0.15 0.11 0.06 0.07 0.05 0.03 0.03 0.04 0.03 0.01 0.01 0.01 0.01 0.00 0.00 0.00 0.00 0.00 0.00 0.00 0.00 0.00 0.00 0.00 0.00 0.00 0.00 0.00 0.00 0.00 0.00
0.59 0.49 0.41 0.34 0.39 0.21 0.13 0.19 0.10 0.11 0.20 0.23 0.23 0.16 0.21 0.18 0.20 0.20 0.21 0.26 0.26 0.24 0.20 0.12 0.08 0.07 0.05 0.03 0.03 0.03 0.03 0.02 0.01 0.01 0.01 0.01 0.00 0.00 0.00 0.00 0.00 0.00 0.00 0.00 0.00 0.00 0.00 0.00 0.00 0.00 0.00 0.00 0.00 0.00
0.60 0.44 0.32 0.30 0.27 0.08 0.04 0.01 0.02 0.02 0.04 0.09 0.09 0.08 0.14 0.17 0.18 0.16 0.13 0.13 0.19 0.21 0.14 0.09 0.09 0.08 0.06 0.04 0.03 0.02 0.02 0.02 0.02 0.02 0.01 0.00 0.00 0.00 0.00 0.00 0.00 0.00 0.00 0.00 0.00 0.00 0.00 0.00 0.00 0.00 0.00 0.00 0.00 0.00
0.22 0.16 0.23 0.37 0.28 0.09 0.07 0.01 0.00 0.00 0.03 0.05 0.05 0.05 0.08 0.08 0.07 0.06 0.14 0.14 0.13 0.15 0.12 0.14 0.13 0.12 0.09 0.08 0.06 0.04 0.04 0.03 0.03 0.03 0.02 0.01 0.00 0.00 0.00 0.00 0.00 0.00 0.00 0.00 0.00 0.00 0.00 0.00 0.00 0.00 0.00 0.00 0.00 0.00
0.07 0.35 0.41 0.24 0.10 0.09 0.04 0.00 0.00 0.00 0.00 0.01 0.01 0.02 0.02 0.02 0.02 0.03 0.06 0.09 0.10 0.11 0.08 0.11 0.11 0.15 0.15 0.12 0.08 0.05 0.04 0.03 0.01 0.01 0.00 0.00 0.00 0.00 0.00 0.00 0.00 0.00 0.01 0.01 0.01 0.01 0.00 0.00 0.00 0.00 0.00 0.01 0.01 0.01
0.27 0.30 0.16 0.07 0.01 0.01 0.00 0.00 0.00 0.00 0.00 0.00 0.00 0.00 0.00 0.00 0.01 0.02 0.03 0.07 0.09 0.09 0.09 0.08 0.08 0.05 0.03 0.04 0.03 0.02 0.01 0.00 0.00 0.00 0.00 0.00 0.00 0.00 0.00 0.00 0.00 0.01 0.02 0.03 0.02 0.02 0.02 0.02 0.00 0.00 0.02 0.03 0.04 0.02
0.10 0.06 0.03 0.01 0.00 0.00 0.00 0.00 0.00 0.00 0.00 0.00 0.00 0.00 0.00 0.00 0.00 0.01 0.00 0.01 0.03 0.03 0.04 0.03 0.03 0.02 0.03 0.02 0.01 0.00 0.00 0.00 0.00 0.00 0.00 0.00 0.00 0.00 0.00 0.00 0.00 0.01 0.01 0.03 0.04 0.08 0.09 0.09 0.10 0.06 0.03 0.04 0.07 0.07
0.01 0.00 0.00 0.00 0.00 0.00 0.00 0.00 0.00 0.00 0.00 0.00 0.00 0.00 0.00 0.00 0.00 0.00 0.00 0.00 0.01 0.01 0.02 0.02 0.01 0.00 0.00 0.00 0.00 0.00 0.00 0.00 0.00 0.00 0.00 0.00 0.00 0.00 0.00 0.00 0.00 0.00 0.00 0.01 0.08 0.10 0.06 0.03 0.01 0.02 0.02 0.03 0.03 0.05
0.00 0.00 0.00 0.00 0.00 0.00 0.00 0.00 0.00 0.00 0.00 0.00 0.00 0.00 0.00 0.00 0.01 0.01 0.00 0.00 0.00 0.00 0.00 0.00 0.00 0.00 0.00 0.00 0.00 0.00 0.00 0.00 0.00 0.00 0.00 0.00 0.00 0.00 0.00 0.00 0.00 0.01 0.00 0.00 0.00 0.00 0.00 0.01 0.01 0.01 0.02 0.03 0.03 0.05
0.00 0.00 0.00 0.00 0.00 0.00 0.00 0.00 0.00 0.00 0.00 0.00 0.00 0.01 0.01 0.03 0.04 0.02 0.00 0.00 0.00 0.00 0.00 0.00 0.00 0.00 0.00 0.00 0.00 0.00 0.00 0.00 0.00 0.00 0.00 0.00 0.00 0.00 0.00 0.00 0.00 0.00 0.01 0.00 0.01 0.01 0.01 0.02 0.02 0.03 0.03 0.04 0.06 0.08
0.00 0.00 0.00 0.00 0.01 0.03 0.04 0.02 0.01 0.00 0.00 0.00 0.00 0.01 0.03 0.05 0.07 0.04 0.01 0.00 0.00 0.00 0.00 0.00 0.00 0.00 0.00 0.00 0.00 0.00 0.00 0.00 0.00 0.00 0.00 0.00 0.00 0.00 0.00 0.00 0.00 0.00 0.01 0.01 0.01 0.01 0.02 0.02 0.02 0.02 0.02 0.03 0.05 0.07
0.00 0.00 0.00 0.01 0.06 0.08 0.07 0.05 0.02 0.01 0.01 0.01 0.00 0.01 0.03 0.08 0.09 0.08 0.05 0.01 0.00 0.00 0.00 0.00 0.00 0.00 0.00 0.00 0.00 0.00 0.00 0.01 0.00 0.00 0.00 0.00 0.00 0.00 0.01 0.00 0.00 0.01 0.00 0.01 0.01 0.01 0.01 0.01 0.01 0.00 0.00 0.01 0.03 0.06
0.00 0.00 0.00 0.02 0.07 0.05 0.02 0.02 0.01 0.03 0.04 0.02 0.02 0.01 0.01 0.01 0.05 0.08 0.05 0.02 0.01 0.00 0.00 0.00 0.00 0.00 0.00 0.00 0.00 0.00 0.00 0.00 0.00 0.00 0.00 0.00 0.01 0.01 0.01 0.01 0.01 0.00 0.01 0.00 0.01 0.00 0.00 0.00 0.00 0.00 0.01 0.00 0.00 0.01
0.01 0.01 0.00 0.01 0.02 0.01 0.00 0.01 0.01 0.02 0.03 0.02 0.04 0.04 0.03 0.02 0.02 0.04 0.03 0.02 0.01 0.00 0.00 0.00 0.00 0.00 0.00 0.00 0.00 0.01 0.01 0.01 0.01 0.01 0.01 0.00 0.00 0.00 0.00 0.01 0.01 0.00 0.00 0.00 0.00 0.00 0.00 0.00 0.01 0.00 0.00 0.00 0.00 0.00

GFSWCAN_prec_precacc24_333.txt.gz
Total_Precipitation_Accumulation
0.27 0.16 0.08 0.01 0.00 0.00 0.02 0.01 0.00 0.00 0.01 0.02 0.01 0.04 0.01 0.00 0.02 0.15 0.26 0.26 0.26 0.29 0.06 0.00 0.00 0.00 0.00 0.00 0.00 0.00 0.00 0.00 0.00 0.00 0.00 0.00 0.01 0.01 0.01 0.01 0.00 0.01 0.01 0.01 0.01 0.02 0.01 0.00 0.00 0.00 0.00 0.00 0.00 0.00
0.35 0.18 0.08 0.01 0.01 0.01 0.02 0.02 0.01 0.00 0.00 0.02 0.02 0.07 0.01 0.01 0.01 0.14 0.29 0.29 0.25 0.26 0.08 0.00 0.00 0.00 0.00 0.00 0.00 0.00 0.00 0.00 0.00 0.00 0.01 0.00 0.01 0.00 0.01 0.02 0.02 0.03 0.02 0.03 0.02 0.02 0.00 0.00 0.00 0.00 0.00 0.00 0.00 0.00
0.38 0.27 0.09 0.01 0.01 0.01 0.03 0.02 0.01 0.00 0.01 0.01 0.01 0.09 0.03 0.01 0.00 0.12 0.25 0.29 0.28 0.22 0.09 0.00 0.00 0.00 0.00 0.00 0.00 0.00 0.00 0.00 0.00 0.00 0.01 0.04 0.04 0.01 0.01 0.02 0.01 0.01 0.02 0.06 0.08 0.04 0.01 0.01 0.00 0.00 0.00 0.00 0.00 0.01
0.41 0.31 0.10 0.01 0.01 0.01 0.03 0.03 0.02 0.01 0.00 0.01 0.01 0.08 0.04 0.02 0.02 0.07 0.24 0.24 0.30 0.16 0.09 0.04 0.00 0.00 0.00 0.00 0.01 0.01 0.00 0.00 0.00 0.01 0.01 0.02 0.04 0.03 0.04 0.02 0.02 0.02 0.01 0.01 0.03 0.03 0.04 0.01 0.01 0.00 0.00 0.00 0.00 0.00
0.43 0.36 0.07 0.01 0.01 0.01 0.04 0.04 0.02 0.01 0.01 0.01 0.02 0.06 0.04 0.03 0.04 0.12 0.22 0.26 0.17 0.18 0.11 0.03 0.02 0.00 0.00 0.00 0.01 0.02 0.01 0.00 0.01 0.02 0.03 0.02 0.01 0.02 0.05 0.09 0.08 0.04 0.03 0.06 0.05 0.02 0.02 0.01 0.00 0.00 0.00 0.00 0.00 0.00
0.40 0.45 0.06 0.01 0.01 0.02 0.05 0.04 0.03 0.01 0.01 0.01 0.03 0.07 0.05 0.05 0.13 0.23 0.39 0.32 0.16 0.18 0.15 0.11 0.03 0.00 0.00 0.00 0.00 0.01 0.01 0.02 0.01 0.02 0.02 0.01 0.01 0.04 0.07 0.04 0.03 0.03 0.03 0.02 0.00 0.00 0.00 0.00 0.00 0.00 0.00 0.00 0.00 0.00
0.38 0.42 0.05 0.01 0.02 0.02 0.06 0.05 0.05 0.02 0.02 0.02 0.07 0.12 0.09 0.10 0.22 0.31 0.29 0.20 0.14 0.16 0.17 0.13 0.11 0.01 0.00 0.00 0.00 0.01 0.01 0.02 0.01 0.02 0.01 0.00 0.00 0.02 0.03 0.00 0.00 0.00 0.00 0.00 0.00 0.00 0.00 0.00 0.00 0.00 0.00 0.00 0.00 0.00
0.39 0.31 0.05 0.03 0.02 0.04 0.07 0.07 0.07 0.04 0.07 0.09 0.16 0.21 0.21 0.36 0.35 0.22 0.05 0.04 0.14 0.22 0.17 0.15 0.17 0.08 0.00 0.00 0.01 0.01 0.01 0.01 0.02 0.03 0.04 0.03 0.02 0.02 0.02 0.00 0.00 0.00 0.00 0.00 0.00 0.00 0.00 0.00 0.01 0.01 0.01 0.01 0.01 0.01
0.40 0.19 0.04 0.05 0.03 0.09 0.09 0.10 0.12 0.11 0.15 0.23 0.35 0.49 0.76 0.81 0.56 0.33 0.17 0.12 0.23 0.36 0.18 0.06 0.07 0.11 0.04 0.01 0.01 0.01 0.01 0.02 0.03 0.02 0.01 0.01 0.04 0.05 0.01 0.01 0.00 0.00 0.00 0.00 0.01 0.01 0.02 0.02 0.02 0.02 0.00 0.00 0.00 0.00
0.36 0.15 0.07 0.10 0.07 0.17 0.16 0.18 0.23 0.25 0.33 0.50 0.87 1.07 1.00 0.65 0.30 0.40 0.43 0.50 0.71 0.68 0.21 0.02 0.01 0.06 0.10 0.07 0.03 0.02 0.01 0.02 0.03 0.01 0.01 0.01 0.01 0.00 0.00 0.00 0.00 0.00 0.00 0.00 0.00 0.00 0.01 0.01 0.00 0.00 0.00 0.00 0.00 0.00
0.31 0.17 0.13 0.19 0.21 0.28 0.30 0.34 0.42 0.50 0.68 0.81 0.89 0.66 0.51 0.41 0.56 0.94 0.89 0.66 0.59 0.35 0.13 0.01 0.00 0.02 0.06 0.18 0.18 0.11 0.10 0.07 0.03 0.01 0.01 0.01 0.00 0.00 0.00 0.00 0.00 0.00 0.00 0.00 0.00 0.00 0.00 0.00 0.00 0.00 0.00 0.00 0.00 0.00
0.32 0.20 0.23 0.29 0.30 0.33 0.37 0.47 0.58 0.59 0.56 0.34 0.25 0.53 0.57 0.62 0.81 0.89 0.71 0.39 0.22 0.07 0.01 0.00 0.00 0.02 0.01 0.08 0.21 0.26 0.22 0.21 0.13 0.02 0.02 0.00 0.00 0.00 0.00 0.00 0.00 0.00 0.00 0.00 0.00 0.00 0.00 0.00 0.00 0.00 0.00 0.00 0.00 0.00
0.31 0.23 0.24 0.33 0.31 0.36 0.46 0.64 0.67 0.46 0.28 0.18 0.26 0.56 0.57 0.63 0.67 0.39 0.30 0.12 0.03 0.00 0.00 0.00 0.01 0.02 0.01 0.02 0.04 0.06 0.11 0.12 0.06 0.03 0.01 0.00 0.00 0.00 0.00 0.00 0.00 0.00 0.00 0.00 0.01 0.01 0.02 0.01 0.00 0.00 0.00 0.00 0.00 0.00
0.25 0.17 0.22 0.34 0.34 0.49 0.62 0.97 0.70 0.41 0.27 0.42 0.46 0.47 0.32 0.23 0.12 0.05 0.01 0.00 0.00 0.00 0.00 0.00 0.01 0.01 0.02 0.03 0.02 0.03 0.02 0.00 0.00 0.00 0.00 0.00 0.00 0.00 0.01 0.01 0.01 0.02 0.01 0.01 0.04 0.05 0.03 0.00 0.00 0.00 0.00 0.00 0.00 0.00
0.15 0.20 0.37 0.61 0.53 0.63 1.02 0.79 0.57 0.29 0.35 0.30 0.15 0.12 0.08 0.04 0.01 0.00 0.00 0.00 0.00 0.00 0.00 0.01 0.01 0.01 0.02 0.02 0.02 0.01 0.01 0.00 0.00 0.00 0.00 0.00 0.00 0.00 0.00 0.00 0.00 0.00 0.01 0.03 0.02 0.00 0.00 0.00 0.00 0.00 0.00 0.00 0.00 0.00
0.31 0.47 0.58 0.63 0.66 0.73 1.00 0.81 0.67 0.38 0.36 0.27 0.26 0.16 0.03 0.03 0.03 0.02 0.02 0.02 0.01 0.01 0.01 0.01 0.02 0.05 0.06 0.05 0.02 0.00 0.00 0.00 0.01 0.00 0.00 0.00 0.00 0.00 0.00 0.00 0.00 0.00 0.01 0.01 0.00 0.00 0.00 0.00 0.00 0.00 0.00 0.00 0.00 0.00
0.31 0.57 0.54 0.56 0.66 0.89 1.17 1.24 1.06 0.67 0.46 0.31 0.20 0.04 0.05 0.03 0.02 0.02 0.03 0.03 0.01 0.02 0.01 0.02 0.02 0.02 0.03 0.01 0.00 0.00 0.00 0.00 0.00 0.00 0.00 0.00 0.00 0.00 0.00 0.00 0.00 0.00 0.00 0.00 0.00 0.00 0.00 0.00 0.00 0.00 0.00 0.00 0.00 0.00
0.21 0.28 0.41 0.56 0.77 1.37 1.30 1.03 0.70 0.52 0.46 0.29 0.14 0.06 0.05 0.04 0.01 0.01 0.02 0.03 0.02 0.04 0.03 0.03 0.02 0.02 0.01 0.01 0.01 0.01 0.01 0.01 0.02 0.01 0.01 0.00 0.00 0.00 0.00 0.00 0.00 0.00 0.00 0.00 0.00 0.00 0.00 0.00 0.00 0.00 0.00 0.00 0.00 0.00
0.20 0.30 0.40 0.52 0.61 0.87 1.18 1.00 0.28 0.28 0.41 0.22 0.12 0.03 0.01 0.01 0.01 0.00 0.04 0.13 0.05 0.04 0.06 0.06 0.07 0.04 0.04 0.05 0.05 0.03 0.05 0.05 0.04 0.02 0.01 0.00 0.00 0.00 0.00 0.00 0.00 0.00 0.00 0.00 0.00 0.00 0.00 0.00 0.00 0.00 0.00 0.00 0.00 0.00
0.50 0.48 0.40 0.29 0.21 0.33 0.51 0.74 0.12 0.17 0.26 0.27 0.21 0.12 0.06 0.10 0.09 0.06 0.11 0.20 0.18 0.13 0.16 0.15 0.11 0.06 0.08 0.05 0.03 0.03 0.04 0.02 0.01 0.01 0.01 0.00 0.00 0.00 0.00 0.00 0.00 0.00 0.00 0.00 0.00 0.00 0.00 0.00 0.00 0.00 0.00 0.00 0.00 0.00
0.60 0.51 0.42 0.36 0.48 0.26 0.16 0.25 0.10 0.11 0.20 0.23 0.23 0.16 0.21 0.18 0.20 0.20 0.21 0.26 0.26 0.24 0.20 0.12 0.08 0.07 0.05 0.03 0.03 0.03 0.02 0.01 0.00 0.00 0.00 0.01 0.00 0.00 0.00 0.00 0.00 0.00 0.00 0.00 0.00 0.00 0.00 0.00 0.00 0.00 0.00 0.00 0.00 0.00
0.62 0.45 0.33 0.38 0.43 0.14 0.05 0.02 0.02 0.02 0.04 0.09 0.09 0.08 0.14 0.17 0.18 0.16 0.13 0.13 0.19 0.21 0.14 0.09 0.09 0.08 0.06 0.04 0.03 0.02 0.02 0.02 0.02 0.02 0.01 0.00 0.00 0.00 0.00 0.00 0.00 0.00 0.00 0.00 0.00 0.00 0.00 0.00 0.00 0.00 0.00 0.00 0.00 0.00
0.24 0.16 0.24 0.48 0.44 0.18 0.12 0.01 0.00 0.00 0.03 0.05 0.05 0.05 0.08 0.08 0.07 0.06 0.14 0.14 0.13 0.15 0.12 0.14 0.13 0.12 0.09 0.08 0.06 0.04 0.04 0.03 0.03 0.03 0.02 0.01 0.01 0.00 0.00 0.00 0.00 0.00 0.00 0.00 0.00 0.00 0.00 0.00 0.00 0.00 0.00 0.00 0.00 0.00
0.07 0.35 0.43 0.32 0.22 0.16 0.07 0.00 0.00 0.00 0.00 0.01 0.01 0.02 0.02 0.02 0.02 0.03 0.06 0.09 0.10 0.11 0.08 0.12 0.11 0.15 0.15 0.12 0.08 0.05 0.04 0.04 0.02 0.02 0.01 0.00 0.00 0.00 0.00 0.00 0.00 0.00 0.00 0.00 0.00 0.01 0.00 0.00 0.00 0.00 0.00 0.01 0.01 0.01
0.34 0.32 0.18 0.13 0.05 0.02 0.00 0.00 0.00 0.00 0.00 0.00 0.00 0.00 0.00 0.00 0.01 0.02 0.03 0.07 0.09 0.09 0.09 0.08 0.08 0.05 0.03 0.04 0.03 0.04 0.03 0.01 0.01 0.01 0.00 0.00 0.00 0.00 0.00 0.00 0.00 0.00 0.00 0.01 0.01 0.01 0.02 0.02 0.00 0.00 0.01 0.03 0.04 0.03
0.20 0.10 0.06 0.02 0.00 0.00 0.00 0.00 0.00 0.00 0.00 0.00 0.00 0.00 0.00 0.00 0.00 0.01 0.00 0.01 0.03 0.03 0.04 0.04 0.04 0.03 0.03 0.03 0.02 0.01 0.01 0.01 0.00 0.00 0.00 0.00 0.00 0.00 0.00 0.00 0.00 0.00 0.01 0.01 0.01 0.03 0.06 0.09 0.10 0.06 0.03 0.03 0.05 0.06
0.07 0.01 0.00 0.00 0.00 0.00 0.00 0.00 0.00 0.00 0.00 0.00 0.00 0.00 0.00 0.00 0.00 0.00 0.00 0.00 0.01 0.01 0.02 0.02 0.02 0.01 0.01 0.01 0.00 0.00 0.00 0.00 0.00 0.00 0.00 0.00 0.00 0.00 0.00 0.00 0.00 0.00 0.00 0.00 0.00 0.02 0.04 0.02 0.01 0.02 0.02 0.01 0.02 0.03
0.00 0.00 0.00 0.00 0.00 0.00 0.00 0.00 0.00 0.00 0.00 0.00 0.00 0.00 0.00 0.00 0.01 0.01 0.00 0.00 0.00 0.01 0.01 0.01 0.01 0.00 0.00 0.00 0.00 0.00 0.00 0.00 0.00 0.00 0.00 0.00 0.00 0.00 0.00 0.00 0.00 0.01 0.00 0.00 0.00 0.00 0.00 0.01 0.01 0.01 0.01 0.01 0.01 0.03
0.00 0.00 0.00 0.00 0.00 0.00 0.00 0.00 0.00 0.00 0.00 0.00 0.00 0.01 0.01 0.03 0.04 0.02 0.00 0.00 0.00 0.00 0.00 0.00 0.00 0.00 0.00 0.00 0.00 0.00 0.00 0.00 0.00 0.00 0.00 0.00 0.00 0.00 0.00 0.00 0.00 0.00 0.01 0.00 0.01 0.01 0.01 0.01 0.01 0.01 0.01 0.01 0.02 0.02
0.00 0.00 0.00 0.00 0.01 0.03 0.04 0.02 0.01 0.00 0.00 0.00 0.00 0.01 0.03 0.05 0.07 0.04 0.01 0.00 0.00 0.00 0.00 0.00 0.00 0.00 0.00 0.00 0.00 0.00 0.00 0.00 0.00 0.00 0.00 0.00 0.00 0.00 0.00 0.00 0.00 0.00 0.01 0.01 0.01 0.01 0.01 0.01 0.01 0.01 0.01 0.01 0.02 0.02
0.00 0.00 0.00 0.01 0.06 0.08 0.07 0.05 0.02 0.01 0.01 0.01 0.00 0.01 0.03 0.08 0.09 0.10 0.07 0.01 0.00 0.00 0.00 0.00 0.00 0.00 0.00 0.00 0.00 0.00 0.00 0.00 0.00 0.00 0.00 0.00 0.00 0.00 0.01 0.00 0.00 0.01 0.00 0.01 0.01 0.01 0.01 0.01 0.01 0.00 0.00 0.00 0.00 0.01
0.00 0.00 0.00 0.02 0.07 0.05 0.03 0.03 0.02 0.04 0.04 0.02 0.02 0.01 0.02 0.01 0.05 0.10 0.09 0.05 0.03 0.02 0.01 0.00 0.00 0.00 0.00 0.00 0.00 0.00 0.00 0.00 0.00 0.00 0.00 0.00 0.01 0.01 0.01 0.01 0.01 0.00 0.01 0.00 0.01 0.00 0.00 0.00 0.00 0.00 0.00 0.00 0.00 0.00
0.01 0.01 0.00 0.01 0.03 0.01 0.01 0.01 0.01 0.02 0.03 0.03 0.04 0.05 0.04 0.02 0.02 0.04 0.05 0.04 0.01 0.00 0.00 0.00 0.00 0.00 0.00 0.00 0.00 0.01 0.00 0.01 0.00 0.00 0.00 0.00 0.00 0.00 0.00 0.01 0.01 0.00 0.00 0.00 0.00 0.00 0.00 0.00 0.01 0.00 0.00 0.00 0.00 0.00

GFSWCAN_prec_precacc24_336.txt.gz
Total_Precipitation_Accumulation
0.40 0.30 0.19 0.09 0.02 0.00 0.02 0.01 0.00 0.00 0.01 0.02 0.01 0.04 0.02 0.01 0.01 0.01 0.02 0.01 0.12 0.27 0.06 0.00 0.00 0.00 0.00 0.00 0.00 0.00 0.00 0.00 0.00 0.00 0.00 0.00 0.01 0.01 0.01 0.01 0.00 0.01 0.01 0.01 0.01 0.02 0.01 0.00 0.00 0.00 0.00 0.00 0.00 0.00
0.49 0.35 0.26 0.05 0.01 0.00 0.02 0.02 0.01 0.01 0.01 0.02 0.02 0.07 0.02 0.01 0.01 0.01 0.04 0.01 0.12 0.23 0.08 0.00 0.00 0.00 0.00 0.00 0.00 0.00 0.00 0.00 0.00 0.00 0.01 0.00 0.01 0.00 0.01 0.02 0.02 0.03 0.02 0.03 0.02 0.02 0.00 0.00 0.00 0.00 0.00 0.00 0.00 0.00
0.52 0.38 0.30 0.06 0.00 0.00 0.02 0.02 0.01 0.01 0.01 0.02 0.02 0.09 0.03 0.00 0.00 0.02 0.04 0.03 0.09 0.19 0.09 0.00 0.00 0.00 0.00 0.00 0.00 0.00 0.00 0.00 0.00 0.00 0.01 0.04 0.04 0.01 0.01 0.02 0.01 0.01 0.02 0.06 0.08 0.04 0.01 0.01 0.00 0.00 0.00 0.00 0.00 0.01
0.52 0.42 0.30 0.08 0.00 0.00 0.03 0.03 0.02 0.02 0.01 0.02 0.02 0.08 0.04 0.02 0.00 0.01 0.06 0.04 0.13 0.13 0.08 0.04 0.00 0.00 0.00 0.00 0.01 0.01 0.00 0.00 0.00 0.01 0.01 0.02 0.04 0.03 0.04 0.02 0.02 0.02 0.01 0.01 0.03 0.03 0.04 0.01 0.01 0.00 0.00 0.00 0.00 0.00
0.51 0.47 0.24 0.06 0.01 0.01 0.03 0.04 0.03 0.01 0.02 0.02 0.02 0.06 0.03 0.02 0.01 0.03 0.08 0.09 0.11 0.15 0.10 0.02 0.02 0.00 0.00 0.00 0.01 0.02 0.01 0.00 0.01 0.02 0.03 0.02 0.01 0.02 0.05 0.09 0.08 0.04 0.03 0.06 0.05 0.02 0.02 0.01 0.00 0.00 0.00 0.00 0.00 0.00
0.49 0.57 0.22 0.04 0.01 0.01 0.05 0.06 0.04 0.01 0.05 0.02 0.03 0.06 0.03 0.02 0.04 0.06 0.14 0.17 0.12 0.17 0.15 0.11 0.03 0.00 0.00 0.00 0.00 0.01 0.01 0.02 0.01 0.02 0.02 0.01 0.01 0.04 0.07 0.04 0.03 0.03 0.03 0.02 0.00 0.00 0.00 0.00 0.00 0.00 0.00 0.00 0.00 0.00
0.44 0.53 0.16 0.03 0.02 0.02 0.07 0.08 0.05 0.03 0.09 0.02 0.05 0.06 0.03 0.05 0.08 0.07 0.09 0.13 0.11 0.16 0.17 0.13 0.11 0.01 0.00 0.00 0.00 0.01 0.01 0.02 0.01 0.02 0.01 0.00 0.00 0.02 0.03 0.00 0.00 0.00 0.00 0.00 0.00 0.00 0.00 0.00 0.00 0.00 0.00 0.00 0.00 0.00
0.44 0.40 0.10 0.03 0.02 0.04 0.09 0.09 0.08 0.06 0.09 0.04 0.07 0.08 0.07 0.18 0.14 0.09 0.03 0.03 0.13 0.22 0.17 0.15 0.18 0.08 0.00 0.00 0.01 0.01 0.01 0.01 0.02 0.03 0.03 0.03 0.02 0.02 0.02 0.00 0.00 0.00 0.00 0.00 0.00 0.00 0.00 0.00 0.01 0.01 0.01 0.01 0.01 0.01
0.47 0.28 0.07 0.05 0.02 0.08 0.11 0.10 0.10 0.08 0.08 0.11 0.14 0.19 0.34 0.41 0.28 0.16 0.15 0.11 0.23 0.35 0.18 0.06 0.07 0.11 0.04 0.01 0.01 0.01 0.01 0.02 0.02 0.02 0.01 0.01 0.04 0.05 0.01 0.01 0.00 0.00 0.00 0.00 0.01 0.01 0.02 0.02 0.02 0.02 0.00 0.00 0.00 0.00
0.45 0.18 0.05 0.07 0.03 0.14 0.11 0.11 0.13 0.13 0.17 0.28 0.44 0.50 0.50 0.33 0.19 0.30 0.36 0.45 0.67 0.66 0.21 0.02 0.01 0.06 0.10 0.07 0.03 0.02 0.01 0.02 0.03 0.01 0.01 0.01 0.01 0.00 0.00 0.00 0.00 0.00 0.00 0.00 0.00 0.00 0.01 0.01 0.00 0.00 0.00 0.00 0.00 0.00
0.32 0.12 0.06 0.10 0.09 0.16 0.13 0.15 0.21 0.25 0.48 0.52 0.54 0.35 0.32 0.32 0.42 0.72 0.67 0.51 0.52 0.33 0.13 0.01 0.00 0.02 0.06 0.18 0.18 0.11 0.09 0.07 0.03 0.01 0.01 0.01 0.00 0.00 0.00 0.00 0.00 0.00 0.00 0.00 0.00 0.00 0.00 0.00 0.00 0.00 0.00 0.00 0.00 0.00
0.25 0.09 0.12 0.15 0.18 0.18 0.19 0.26 0.41 0.44 0.47 0.25 0.14 0.43 0.46 0.47 0.57 0.68 0.60 0.34 0.21 0.07 0.01 0.00 0.00 0.02 0.01 0.08 0.21 0.26 0.22 0.21 0.13 0.02 0.02 0.00 0.00 0.00 0.00 0.00 0.00 0.00 0.00 0.00 0.00 0.00 0.00 0.00 0.00 0.00 0.00 0.00 0.00 0.00
0.24 0.11 0.14 0.23 0.23 0.23 0.32 0.60 0.60 0.42 0.26 0.15 0.20 0.44 0.37 0.46 0.50 0.31 0.27 0.11 0.03 0.00 0.00 0.00 0.01 0.02 0.01 0.02 0.04 0.06 0.11 0.12 0.06 0.03 0.01 0.00 0.00 0.00 0.00 0.00 0.00 0.00 0.00 0.00 0.01 0.01 0.02 0.01 0.00 0.00 0.00 0.00 0.00 0.00
0.16 0.07 0.16 0.32 0.29 0.40 0.60 0.96 0.62 0.42 0.25 0.34 0.35 0.37 0.19 0.19 0.10 0.04 0.01 0.00 0.00 0.00 0.00 0.00 0.01 0.01 0.02 0.03 0.02 0.03 0.02 0.00 0.00 0.00 0.00 0.00 0.00 0.00 0.01 0.01 0.01 0.02 0.01 0.01 0.03 0.05 0.03 0.00 0.00 0.00 0.00 0.00 0.00 0.00
0.13 0.18 0.35 0.62 0.48 0.54 0.95 0.78 0.54 0.30 0.33 0.25 0.11 0.09 0.04 0.03 0.01 0.00 0.00 0.00 0.00 0.00 0.00 0.01 0.01 0.01 0.02 0.02 0.02 0.01 0.01 0.01 0.00 0.00 0.00 0.00 0.00 0.00 0.00 0.00 0.00 0.00 0.01 0.03 0.02 0.00 0.00 0.00 0.00 0.00 0.00 0.00 0.00 0.00
0.30 0.46 0.56 0.59 0.63 0.80 1.07 0.82 0.68 0.39 0.35 0.26 0.19 0.10 0.02 0.03 0.03 0.02 0.02 0.02 0.01 0.01 0.01 0.01 0.02 0.05 0.06 0.05 0.02 0.00 0.00 0.00 0.00 0.00 0.00 0.00 0.00 0.00 0.00 0.00 0.00 0.00 0.01 0.01 0.00 0.00 0.00 0.00 0.00 0.00 0.00 0.00 0.00 0.00
0.31 0.57 0.54 0.57 0.73 1.19 1.29 1.27 1.08 0.65 0.41 0.23 0.12 0.03 0.05 0.03 0.01 0.02 0.03 0.03 0.01 0.02 0.01 0.02 0.02 0.02 0.03 0.01 0.00 0.00 0.00 0.00 0.00 0.00 0.00 0.00 0.00 0.00 0.00 0.00 0.00 0.00 0.00 0.00 0.00 0.00 0.00 0.00 0.00 0.00 0.00 0.00 0.00 0.00
0.21 0.29 0.41 0.57 0.99 1.72 1.40 1.06 0.72 0.50 0.37 0.20 0.08 0.05 0.05 0.04 0.01 0.01 0.02 0.03 0.03 0.04 0.03 0.03 0.02 0.02 0.01 0.01 0.01 0.01 0.01 0.01 0.02 0.01 0.01 0.00 0.00 0.00 0.00 0.00 0.00 0.00 0.00 0.00 0.00 0.00 0.00 0.00 0.00 0.00 0.00 0.00 0.00 0.00
0.20 0.30 0.41 0.53 0.75 1.04 1.35 1.08 0.29 0.23 0.36 0.21 0.11 0.04 0.03 0.02 0.01 0.00 0.04 0.13 0.05 0.04 0.06 0.06 0.07 0.04 0.04 0.05 0.05 0.03 0.05 0.05 0.04 0.02 0.01 0.00 0.00 0.00 0.00 0.00 0.00 0.00 0.00 0.00 0.00 0.00 0.00 0.00 0.00 0.00 0.00 0.00 0.00 0.00
0.50 0.48 0.40 0.31 0.29 0.42 0.59 0.78 0.14 0.17 0.25 0.27 0.21 0.14 0.08 0.11 0.10 0.06 0.12 0.20 0.18 0.13 0.16 0.15 0.11 0.06 0.08 0.05 0.03 0.03 0.04 0.02 0.01 0.01 0.01 0.00 0.00 0.00 0.00 0.00 0.00 0.00 0.00 0.00 0.00 0.00 0.00 0.00 0.00 0.00 0.00 0.00 0.00 0.00
0.60 0.52 0.43 0.41 0.59 0.30 0.19 0.28 0.10 0.11 0.19 0.23 0.23 0.16 0.21 0.18 0.20 0.20 0.21 0.26 0.26 0.24 0.20 0.12 0.08 0.07 0.05 0.03 0.03 0.03 0.02 0.00 0.00 0.00 0.00 0.01 0.00 0.00 0.00 0.00 0.00 0.00 0.00 0.00 0.00 0.00 0.00 0.00 0.00 0.00 0.00 0.00 0.00 0.00
0.62 0.46 0.34 0.41 0.46 0.15 0.05 0.02 0.02 0.02 0.04 0.09 0.09 0.08 0.14 0.17 0.18 0.16 0.13 0.13 0.19 0.21 0.14 0.09 0.09 0.08 0.06 0.04 0.03 0.02 0.02 0.02 0.02 0.02 0.01 0.00 0.00 0.00 0.00 0.00 0.00 0.00 0.00 0.00 0.00 0.00 0.00 0.00 0.00 0.00 0.00 0.00 0.00 0.00
0.24 0.16 0.24 0.49 0.47 0.20 0.14 0.01 0.00 0.00 0.03 0.05 0.05 0.05 0.08 0.08 0.07 0.06 0.14 0.14 0.13 0.15 0.12 0.14 0.13 0.12 0.09 0.08 0.06 0.04 0.04 0.03 0.03 0.03 0.02 0.01 0.01 0.00 0.00 0.00 0.00 0.00 0.00 0.00 0.00 0.00 0.00 0.00 0.00 0.00 0.00 0.00 0.00 0.00
0.07 0.35 0.44 0.34 0.27 0.19 0.08 0.01 0.00 0.00 0.00 0.01 0.01 0.02 0.02 0.02 0.02 0.03 0.06 0.09 0.10 0.11 0.08 0.12 0.11 0.15 0.15 0.12 0.08 0.05 0.04 0.04 0.02 0.02 0.01 0.00 0.00 0.00 0.00 0.00 0.00 0.00 0.00 0.00 0.00 0.00 0.00 0.00 0.00 0.00 0.00 0.01 0.01 0.01
0.34 0.33 0.19 0.15 0.09 0.04 0.01 0.00 0.00 0.00 0.00 0.00 0.00 0.00 0.00 0.00 0.01 0.02 0.03 0.07 0.09 0.09 0.09 0.08 0.08 0.05 0.03 0.04 0.03 0.04 0.03 0.01 0.01 0.01 0.00 0.00 0.00 0.00 0.00 0.00 0.00 0.00 0.00 0.01 0.01 0.01 0.01 0.01 0.00 0.00 0.01 0.03 0.04 0.02
0.20 0.10 0.06 0.02 0.00 0.00 0.00 0.00 0.00 0.00 0.00 0.00 0.00 0.00 0.00 0.00 0.00 0.01 0.00 0.01 0.03 0.03 0.04 0.04 0.04 0.03 0.03 0.03 0.02 0.02 0.01 0.01 0.01 0.00 0.00 0.00 0.00 0.00 0.00 0.00 0.00 0.00 0.01 0.01 0.01 0.01 0.01 0.01 0.02 0.05 0.03 0.03 0.05 0.04
0.10 0.01 0.00 0.00 0.00 0.00 0.00 0.00 0.00 0.00 0.00 0.00 0.00 0.00 0.00 0.00 0.00 0.00 0.00 0.00 0.01 0.01 0.02 0.02 0.02 0.01 0.01 0.01 0.01 0.01 0.00 0.00 0.00 0.01 0.00 0.00 0.00 0.00 0.00 0.00 0.00 0.00 0.00 0.00 0.00 0.00 0.01 0.01 0.00 0.02 0.02 0.01 0.01 0.02
0.01 0.00 0.00 0.00 0.00 0.00 0.00 0.00 0.00 0.00 0.00 0.00 0.00 0.00 0.00 0.00 0.01 0.01 0.00 0.00 0.00 0.01 0.01 0.01 0.01 0.00 0.01 0.01 0.00 0.00 0.00 0.00 0.00 0.00 0.00 0.00 0.00 0.00 0.00 0.00 0.00 0.01 0.00 0.01 0.00 0.00 0.00 0.00 0.01 0.01 0.01 0.01 0.01 0.02
0.00 0.00 0.00 0.00 0.00 0.00 0.00 0.00 0.00 0.00 0.00 0.00 0.00 0.01 0.01 0.03 0.04 0.02 0.00 0.00 0.00 0.00 0.00 0.01 0.00 0.00 0.00 0.00 0.00 0.00 0.00 0.00 0.00 0.00 0.00 0.00 0.00 0.00 0.00 0.00 0.00 0.00 0.00 0.01 0.01 0.01 0.01 0.01 0.01 0.01 0.01 0.01 0.02 0.02
0.00 0.00 0.00 0.00 0.01 0.03 0.03 0.02 0.01 0.00 0.00 0.00 0.00 0.01 0.03 0.05 0.07 0.04 0.01 0.00 0.00 0.00 0.00 0.00 0.00 0.00 0.00 0.00 0.01 0.00 0.00 0.00 0.00 0.00 0.00 0.00 0.00 0.00 0.00 0.00 0.00 0.00 0.01 0.00 0.01 0.01 0.01 0.01 0.01 0.01 0.00 0.01 0.01 0.01
0.00 0.00 0.00 0.01 0.05 0.07 0.07 0.05 0.02 0.01 0.01 0.01 0.00 0.01 0.03 0.08 0.09 0.10 0.07 0.01 0.00 0.00 0.00 0.01 0.01 0.01 0.00 0.00 0.00 0.00 0.00 0.00 0.00 0.00 0.00 0.00 0.00 0.00 0.01 0.00 0.00 0.01 0.00 0.00 0.00 0.01 0.01 0.01 0.00 0.00 0.00 0.00 0.00 0.00
0.00 0.00 0.00 0.02 0.07 0.05 0.03 0.03 0.02 0.04 0.04 0.02 0.02 0.01 0.02 0.01 0.06 0.10 0.10 0.05 0.03 0.03 0.01 0.00 0.00 0.00 0.00 0.00 0.00 0.00 0.00 0.00 0.00 0.00 0.00 0.00 0.00 0.00 0.00 0.01 0.01 0.00 0.01 0.00 0.01 0.00 0.00 0.00 0.00 0.00 0.00 0.00 0.00 0.00
0.01 0.01 0.00 0.01 0.03 0.01 0.01 0.01 0.01 0.02 0.03 0.03 0.04 0.05 0.04 0.02 0.02 0.04 0.05 0.04 0.02 0.01 0.00 0.00 0.00 0.00 0.00 0.00 0.00 0.00 0.00 0.00 0.00 0.00 0.00 0.00 0.00 0.00 0.00 0.01 0.01 0.00 0.00 0.00 0.00 0.00 0.00 0.00 0.01 0.00 0.00 0.00 0.00 0.00

GFSWCAN_prec_precacc24_342.txt.gz
Total_Precipitation_Accumulation
0.43 0.32 0.22 0.15 0.08 0.01 0.03 0.04 0.02 0.01 0.01 0.02 0.01 0.05 0.02 0.01 0.01 0.01 0.02 0.00 0.02 0.02 0.01 0.00 0.00 0.00 0.00 0.00 0.00 0.00 0.00 0.00 0.00 0.00 0.00 0.00 0.00 0.00 0.00 0.01 0.00 0.01 0.01 0.01 0.01 0.02 0.01 0.00 0.00 0.00 0.00 0.00 0.00 0.00
0.52 0.38 0.29 0.11 0.13 0.01 0.03 0.04 0.02 0.01 0.01 0.02 0.02 0.08 0.03 0.02 0.01 0.01 0.04 0.00 0.00 0.02 0.02 0.00 0.00 0.00 0.00 0.00 0.00 0.00 0.00 0.00 0.00 0.00 0.01 0.00 0.01 0.00 0.00 0.01 0.01 0.03 0.02 0.03 0.02 0.02 0.00 0.00 0.00 0.00 0.00 0.00 0.00 0.00
0.58 0.44 0.36 0.11 0.14 0.02 0.02 0.03 0.03 0.01 0.01 0.02 0.02 0.10 0.04 0.02 0.00 0.01 0.04 0.00 0.00 0.01 0.01 0.00 0.00 0.00 0.00 0.00 0.00 0.00 0.00 0.00 0.00 0.00 0.01 0.03 0.04 0.01 0.01 0.01 0.01 0.01 0.02 0.06 0.08 0.04 0.01 0.01 0.00 0.00 0.00 0.00 0.00 0.01
0.63 0.50 0.40 0.15 0.12 0.05 0.03 0.03 0.03 0.02 0.01 0.02 0.03 0.08 0.04 0.02 0.00 0.01 0.05 0.01 0.01 0.01 0.01 0.00 0.00 0.00 0.00 0.00 0.00 0.00 0.00 0.00 0.00 0.00 0.01 0.02 0.03 0.03 0.04 0.02 0.02 0.02 0.01 0.01 0.03 0.03 0.04 0.01 0.01 0.00 0.00 0.00 0.00 0.00
0.62 0.57 0.41 0.17 0.11 0.06 0.03 0.04 0.02 0.01 0.02 0.03 0.04 0.06 0.03 0.01 0.01 0.03 0.06 0.04 0.02 0.01 0.01 0.00 0.00 0.00 0.00 0.00 0.00 0.00 0.00 0.00 0.00 0.01 0.02 0.01 0.01 0.02 0.05 0.09 0.08 0.04 0.03 0.06 0.05 0.02 0.02 0.01 0.00 0.00 0.00 0.00 0.00 0.00
0.61 0.68 0.40 0.17 0.10 0.07 0.04 0.05 0.03 0.01 0.05 0.06 0.05 0.06 0.02 0.01 0.08 0.04 0.05 0.02 0.02 0.01 0.02 0.01 0.01 0.00 0.00 0.00 0.00 0.00 0.00 0.00 0.00 0.01 0.01 0.00 0.01 0.04 0.07 0.04 0.03 0.03 0.03 0.02 0.00 0.00 0.00 0.00 0.00 0.00 0.00 0.00 0.00 0.00
0.62 0.67 0.37 0.14 0.10 0.08 0.06 0.06 0.04 0.03 0.10 0.06 0.06 0.06 0.02 0.07 0.13 0.03 0.03 0.01 0.00 0.01 0.03 0.01 0.01 0.00 0.00 0.00 0.00 0.00 0.00 0.00 0.00 0.01 0.01 0.00 0.00 0.02 0.03 0.00 0.00 0.00 0.00 0.00 0.00 0.00 0.00 0.00 0.00 0.00 0.00 0.00 0.00 0.00
0.65 0.60 0.31 0.13 0.09 0.09 0.08 0.07 0.05 0.09 0.14 0.09 0.09 0.11 0.10 0.25 0.12 0.05 0.01 0.00 0.01 0.02 0.01 0.02 0.02 0.01 0.00 0.00 0.01 0.00 0.00 0.00 0.01 0.02 0.02 0.02 0.02 0.02 0.02 0.00 0.00 0.00 0.00 0.00 0.00 0.00 0.00 0.00 0.01 0.01 0.01 0.01 0.01 0.01
0.72 0.54 0.23 0.12 0.07 0.10 0.09 0.08 0.09 0.20 0.16 0.16 0.21 0.22 0.21 0.23 0.17 0.06 0.02 0.03 0.05 0.08 0.03 0.02 0.01 0.01 0.00 0.01 0.01 0.01 0.01 0.01 0.02 0.02 0.01 0.01 0.03 0.04 0.01 0.01 0.00 0.00 0.00 0.00 0.01 0.01 0.02 0.02 0.02 0.02 0.00 0.00 0.00 0.00
0.74 0.48 0.12 0.07 0.05 0.11 0.08 0.09 0.17 0.31 0.27 0.38 0.41 0.24 0.18 0.15 0.09 0.10 0.08 0.10 0.15 0.18 0.07 0.01 0.01 0.01 0.01 0.02 0.02 0.01 0.01 0.02 0.03 0.01 0.01 0.01 0.00 0.00 0.00 0.00 0.00 0.00 0.00 0.00 0.00 0.00 0.01 0.01 0.00 0.00 0.00 0.00 0.00 0.00
0.70 0.31 0.04 0.04 0.07 0.13 0.10 0.13 0.37 0.48 0.68 0.40 0.27 0.12 0.21 0.15 0.22 0.25 0.10 0.05 0.04 0.03 0.03 0.00 0.00 0.02 0.01 0.06 0.12 0.08 0.05 0.03 0.02 0.01 0.01 0.01 0.00 0.00 0.00 0.00 0.00 0.00 0.00 0.00 0.00 0.00 0.00 0.00 0.00 0.00 0.00 0.00 0.00 0.00
0.47 0.12 0.04 0.07 0.15 0.15 0.13 0.27 0.64 0.64 0.49 0.16 0.07 0.40 0.31 0.20 0.15 0.13 0.09 0.06 0.01 0.01 0.00 0.00 0.00 0.02 0.01 0.04 0.17 0.23 0.19 0.17 0.10 0.02 0.02 0.00 0.00 0.00 0.00 0.00 0.00 0.00 0.00 0.00 0.00 0.00 0.00 0.00 0.00 0.00 0.00 0.00 0.00 0.00
0.22 0.04 0.06 0.12 0.18 0.18 0.19 0.68 0.67 0.45 0.22 0.11 0.16 0.40 0.19 0.12 0.10 0.04 0.04 0.02 0.00 0.00 0.00 0.00 0.01 0.02 0.01 0.01 0.03 0.05 0.09 0.09 0.06 0.03 0.01 0.00 0.00 0.00 0.00 0.00 0.00 0.00 0.00 0.00 0.01 0.01 0.02 0.01 0.00 0.00 0.00 0.00 0.00 0.00
0.11 0.03 0.09 0.24 0.19 0.25 0.63 1.07 0.65 0.41 0.15 0.12 0.17 0.18 0.02 0.02 0.02 0.00 0.00 0.00 0.00 0.00 0.00 0.00 0.01 0.01 0.02 0.02 0.02 0.02 0.01 0.00 0.00 0.00 0.00 0.00 0.00 0.00 0.01 0.01 0.01 0.02 0.01 0.01 0.03 0.05 0.03 0.00 0.00 0.00 0.00 0.00 0.00 0.00
0.04 0.06 0.21 0.38 0.26 0.55 1.35 0.90 0.74 0.28 0.20 0.09 0.03 0.03 0.01 0.01 0.00 0.00 0.00 0.00 0.00 0.00 0.00 0.01 0.01 0.01 0.01 0.01 0.01 0.01 0.01 0.00 0.00 0.00 0.00 0.00 0.00 0.00 0.00 0.00 0.00 0.00 0.01 0.03 0.02 0.00 0.00 0.00 0.00 0.00 0.00 0.00 0.00 0.00
0.09 0.27 0.47 0.48 0.57 1.00 1.43 0.91 0.73 0.28 0.19 0.12 0.03 0.02 0.01 0.03 0.02 0.02 0.02 0.02 0.01 0.01 0.01 0.01 0.01 0.02 0.03 0.03 0.01 0.00 0.00 0.00 0.00 0.00 0.00 0.00 0.00 0.00 0.00 0.00 0.00 0.00 0.01 0.01 0.00 0.00 0.00 0.00 0.00 0.00 0.00 0.00 0.00 0.00
0.23 0.46 0.59 0.55 0.86 1.56 1.54 1.38 0.97 0.35 0.15 0.05 0.01 0.03 0.05 0.03 0.01 0.01 0.02 0.03 0.01 0.02 0.01 0.01 0.01 0.01 0.02 0.01 0.00 0.00 0.00 0.00 0.00 0.00 0.00 0.00 0.00 0.00 0.00 0.00 0.00 0.00 0.00 0.00 0.00 0.00 0.00 0.00 0.00 0.00 0.00 0.00 0.00 0.00
0.20 0.30 0.44 0.60 1.24 1.91 1.55 1.08 0.54 0.26 0.13 0.04 0.03 0.04 0.05 0.04 0.01 0.01 0.01 0.03 0.02 0.03 0.03 0.03 0.02 0.02 0.01 0.00 0.01 0.00 0.00 0.00 0.00 0.00 0.01 0.00 0.00 0.00 0.00 0.00 0.00 0.00 0.00 0.00 0.00 0.00 0.00 0.00 0.00 0.00 0.00 0.00 0.00 0.00
0.29 0.37 0.47 0.67 0.98 1.13 1.50 1.03 0.22 0.05 0.06 0.03 0.02 0.02 0.02 0.01 0.01 0.00 0.03 0.12 0.05 0.03 0.05 0.03 0.04 0.02 0.02 0.03 0.03 0.00 0.02 0.03 0.03 0.02 0.01 0.00 0.00 0.00 0.00 0.00 0.00 0.00 0.00 0.00 0.00 0.00 0.00 0.00 0.00 0.00 0.00 0.00 0.00 0.00
0.60 0.56 0.50 0.53 0.48 0.46 0.62 0.72 0.12 0.04 0.05 0.05 0.05 0.06 0.03 0.06 0.06 0.04 0.10 0.17 0.16 0.10 0.10 0.09 0.06 0.04 0.06 0.04 0.02 0.03 0.04 0.02 0.01 0.01 0.01 0.00 0.00 0.00 0.00 0.00 0.00 0.00 0.00 0.00 0.00 0.00 0.00 0.00 0.00 0.00 0.00 0.00 0.00 0.00
0.64 0.57 0.53 0.66 0.72 0.31 0.21 0.27 0.07 0.05 0.07 0.11 0.14 0.11 0.14 0.13 0.16 0.15 0.17 0.24 0.23 0.22 0.18 0.11 0.08 0.07 0.05 0.03 0.03 0.03 0.02 0.00 0.00 0.00 0.00 0.01 0.00 0.00 0.00 0.00 0.00 0.00 0.00 0.00 0.00 0.00 0.00 0.00 0.00 0.00 0.00 0.00 0.00 0.00
0.63 0.48 0.48 0.59 0.57 0.16 0.05 0.02 0.01 0.02 0.03 0.08 0.08 0.07 0.12 0.15 0.18 0.15 0.13 0.14 0.18 0.21 0.14 0.09 0.09 0.08 0.06 0.04 0.03 0.02 0.02 0.02 0.02 0.02 0.01 0.00 0.00 0.00 0.00 0.00 0.00 0.00 0.00 0.00 0.00 0.00 0.00 0.00 0.00 0.00 0.00 0.00 0.00 0.00
0.24 0.18 0.29 0.55 0.51 0.18 0.13 0.00 0.00 0.00 0.03 0.05 0.05 0.05 0.07 0.08 0.07 0.06 0.14 0.14 0.13 0.15 0.12 0.14 0.13 0.12 0.09 0.08 0.06 0.04 0.04 0.03 0.03 0.03 0.02 0.01 0.01 0.00 0.00 0.00 0.00 0.00 0.00 0.00 0.00 0.00 0.00 0.00 0.00 0.00 0.00 0.00 0.00 0.00
0.07 0.35 0.46 0.38 0.29 0.20 0.07 0.00 0.00 0.00 0.00 0.01 0.01 0.02 0.02 0.02 0.02 0.03 0.06 0.09 0.09 0.11 0.08 0.12 0.11 0.15 0.15 0.12 0.08 0.05 0.04 0.04 0.02 0.02 0.01 0.00 0.00 0.00 0.00 0.00 0.00 0.00 0.00 0.00 0.00 0.00 0.00 0.00 0.00 0.00 0.00 0.01 0.01 0.01
0.34 0.33 0.19 0.16 0.09 0.04 0.01 0.00 0.00 0.00 0.00 0.00 0.00 0.00 0.00 0.00 0.01 0.02 0.03 0.07 0.09 0.09 0.09 0.08 0.08 0.05 0.03 0.04 0.03 0.04 0.03 0.01 0.01 0.01 0.00 0.00 0.00 0.00 0.00 0.00 0.00 0.00 0.00 0.01 0.01 0.01 0.00 0.00 0.00 0.00 0.01 0.02 0.04 0.01
0.20 0.10 0.06 0.02 0.00 0.00 0.00 0.00 0.00 0.00 0.00 0.00 0.00 0.00 0.00 0.00 0.00 0.01 0.00 0.01 0.03 0.03 0.04 0.04 0.04 0.03 0.03 0.03 0.02 0.02 0.01 0.01 0.01 0.00 0.00 0.00 0.00 0.00 0.00 0.00 0.00 0.00 0.01 0.00 0.00 0.01 0.00 0.00 0.00 0.00 0.01 0.02 0.04 0.03
0.10 0.01 0.00 0.00 0.00 0.00 0.00 0.00 0.00 0.00 0.00 0.00 0.00 0.00 0.00 0.00 0.00 0.00 0.00 0.00 0.01 0.01 0.02 0.02 0.02 0.01 0.01 0.01 0.01 0.01 0.00 0.00 0.00 0.01 0.01 0.00 0.01 0.00 0.00 0.00 0.00 0.00 0.00 0.00 0.00 0.00 0.00 0.00 0.00 0.00 0.01 0.00 0.01 0.01
0.01 0.00 0.00 0.00 0.00 0.00 0.00 0.00 0.00 0.00 0.00 0.00 0.00 0.00 0.00 0.00 0.01 0.01 0.00 0.00 0.00 0.01 0.01 0.01 0.01 0.00 0.01 0.01 0.01 0.01 0.01 0.01 0.00 0.01 0.02 0.03 0.02 0.01 0.01 0.00 0.01 0.01 0.00 0.00 0.00 0.00 0.00 0.00 0.01 0.01 0.01 0.01 0.01 0.01
0.00 0.00 0.00 0.00 0.00 0.00 0.00 0.00 0.00 0.00 0.00 0.00 0.00 0.00 0.01 0.02 0.03 0.02 0.00 0.00 0.00 0.00 0.00 0.01 0.00 0.00 0.00 0.01 0.01 0.01 0.01 0.01 0.00 0.02 0.02 0.02 0.02 0.01 0.00 0.00 0.00 0.00 0.00 0.00 0.01 0.00 0.00 0.00 0.00 0.00 0.00 0.00 0.01 0.01
0.00 0.00 0.00 0.00 0.00 0.02 0.02 0.02 0.01 0.00 0.00 0.00 0.00 0.01 0.02 0.04 0.07 0.04 0.01 0.00 0.00 0.00 0.00 0.00 0.00 0.00 0.01 0.01 0.02 0.01 0.01 0.01 0.00 0.00 0.00 0.00 0.00 0.00 0.00 0.00 0.00 0.00 0.00 0.00 0.01 0.01 0.01 0.01 0.01 0.01 0.00 0.01 0.01 0.01
0.00 0.00 0.00 0.01 0.03 0.06 0.06 0.05 0.02 0.01 0.01 0.01 0.00 0.01 0.02 0.05 0.08 0.10 0.07 0.01 0.00 0.00 0.00 0.01 0.02 0.01 0.01 0.00 0.00 0.00 0.00 0.00 0.00 0.00 0.00 0.00 0.00 0.00 0.00 0.00 0.00 0.00 0.00 0.00 0.00 0.01 0.01 0.01 0.00 0.00 0.00 0.00 0.00 0.00
0.00 0.00 0.00 0.01 0.06 0.05 0.03 0.03 0.02 0.04 0.04 0.02 0.02 0.01 0.02 0.01 0.05 0.09 0.09 0.05 0.03 0.03 0.02 0.00 0.00 0.01 0.00 0.00 0.01 0.00 0.00 0.00 0.00 0.00 0.00 0.00 0.00 0.00 0.00 0.00 0.00 0.00 0.00 0.00 0.00 0.00 0.00 0.00 0.00 0.00 0.00 0.00 0.00 0.00
0.02 0.01 0.00 0.01 0.03 0.02 0.01 0.01 0.01 0.02 0.03 0.03 0.04 0.05 0.04 0.02 0.02 0.04 0.05 0.04 0.02 0.01 0.00 0.00 0.00 0.00 0.00 0.00 0.00 0.00 0.00 0.00 0.00 0.00 0.00 0.00 0.00 0.00 0.00 0.01 0.01 0.00 0.00 0.00 0.00 0.00 0.00 0.00 0.00 0.00 0.00 0.00 0.00 0.00